GFSFLT1_sfc_dewp_003.txt.gz
Dewpoint
58 57 56 57 56 57 55 56 56 59 58 58 59 57 57 58 53 55 57 58 57 58 58 58 57 57 56 56 57 57 56 56 57
58 58 59 59 59 58 57 57 57 58 57 58 58 57 56 54 53 54 56 56 57 57 56 56 56 55 55 55 54 55 54 54 54
58 60 61 60 59 57 55 55 57 57 57 56 57 56 57 51 50 53 57 57 55 55 54 54 54 55 54 53 53 53 53 52 52
62 62 62 61 57 55 52 51 53 57 58 57 57 56 56 53 49 48 53 57 53 54 52 51 52 53 54 52 51 51 51 51 51
62 61 62 60 57 54 49 51 54 56 55 55 55 57 57 49 51 51 56 55 53 52 51 49 50 50 50 51 50 49 49 50 50
61 62 61 58 57 53 50 51 51 52 54 55 57 59 47 45 49 51 59 56 54 51 50 48 48 50 49 50 51 51 50 50 50
56 61 62 60 59 57 54 53 54 54 44 49 58 48 43 41 48 50 59 58 56 55 53 51 50 50 51 52 52 52 52 52 52
56 55 56 56 61 54 55 54 48 45 44 42 46 44 41 37 41 51 58 58 58 57 57 54 53 53 53 53 53 53 53 54 54
53 53 54 53 53 52 51 49 48 45 42 39 37 38 39 38 36 44 60 58 59 58 57 56 53 53 54 55 55 55 55 55 55
51 51 52 51 51 50 49 48 48 49 45 40 37 36 36 39 40 38 58 58 57 57 56 56 55 54 55 55 55 56 56 56 56
52 51 52 52 53 52 51 49 49 50 49 43 40 38 38 38 40 40 44 56 53 52 52 53 54 55 55 55 55 55 55 56 56
54 52 53 54 53 53 52 52 51 50 50 47 42 41 39 39 39 39 40 46 56 54 52 52 53 54 55 55 55 55 56 57 57
56 54 53 53 54 54 53 53 52 52 51 50 50 46 43 40 39 40 39 42 39 52 55 54 53 53 54 55 55 55 57 59 59
57 57 56 53 55 55 54 53 53 53 53 51 50 50 49 48 44 44 42 43 44 43 51 57 57 56 54 55 55 55 55 58 59
58 58 57 56 55 55 56 55 54 54 53 50 48 50 50 50 50 49 48 47 46 46 46 47 51 56 54 54 55 55 55 57 59
59 58 58 58 57 55 55 56 55 55 55 53 53 53 52 51 52 52 51 50 47 45 45 46 47 47 58 57 55 55 56 56 56
59 59 59 59 59 58 56 56 56 56 55 53 53 50 50 51 51 52 51 51 50 48 47 45 45 47 47 51 57 55 55 57 57
60 60 60 60 60 60 59 58 57 56 56 55 53 49 48 48 51 50 48 47 46 47 46 48 49 49 48 52 53 55 54 55 57
60 60 61 61 61 61 60 59 58 58 56 57 54 54 52 49 47 50 49 47 46 49 50 49 51 51 50 53 54 55 55 53 55
60 60 61 61 61 61 61 60 60 59 58 57 56 54 54 53 51 49 49 50 50 50 49 50 51 51 52 53 54 55 54 54 55

GFSFLT1_sfc_dewp_009.txt.gz
Dewpoint
58 56 56 58 58 57 57 57 57 56 58 58 59 56 56 59 53 58 58 55 58 58 57 56 57 56 55 57 56 55 55 54 55
59 58 58 59 58 58 57 57 58 58 58 58 59 57 57 56 52 57 55 55 57 56 56 56 54 55 53 55 55 54 53 52 52
60 59 61 60 60 59 58 57 58 59 58 59 59 57 59 54 51 54 55 59 58 56 55 55 55 54 53 52 53 53 52 51 51
60 61 62 62 61 58 57 55 57 59 59 58 59 58 59 55 51 54 55 61 57 56 53 54 54 54 53 51 50 50 51 51 50
63 64 64 63 61 59 57 54 54 57 59 60 59 61 60 54 47 54 55 58 57 56 53 53 53 54 53 52 52 51 50 50 50
62 63 64 63 61 59 56 54 55 59 61 61 60 60 56 53 47 53 60 59 57 56 55 53 52 52 52 52 53 53 53 52 52
59 61 64 62 61 60 57 55 56 59 52 53 60 56 55 51 48 52 62 60 57 57 55 54 52 52 53 53 54 54 54 55 54
59 59 60 60 60 58 57 54 53 53 51 47 47 53 53 48 45 49 63 60 59 58 58 57 56 55 54 55 55 56 56 56 56
56 58 58 58 58 58 56 55 54 53 49 46 48 51 49 46 43 41 63 62 60 59 59 60 59 59 57 57 56 56 57 57 57
54 55 55 57 55 56 55 54 52 51 47 43 42 41 41 42 41 38 59 62 62 59 58 59 60 60 60 58 57 57 58 58 58
53 52 53 54 54 54 53 52 51 48 48 44 42 40 39 37 36 39 40 61 62 59 57 57 58 59 59 59 59 59 58 58 58
54 52 52 52 52 51 52 51 49 48 48 49 48 43 39 37 37 37 39 43 59 60 55 55 56 56 57 58 58 61 61 61 61
54 54 52 52 53 53 53 52 52 51 50 50 50 49 44 40 37 37 37 39 40 54 59 58 58 58 56 57 57 58 61 61 61
54 54 55 53 53 53 53 53 53 52 52 51 51 50 50 48 45 41 39 38 40 40 49 57 57 57 58 55 56 57 60 60 61
55 55 55 55 53 53 54 53 53 52 52 51 51 51 51 50 50 48 43 41 40 40 39 42 50 56 58 57 54 55 58 60 60
55 55 56 56 55 53 52 53 53 53 53 52 52 52 52 51 50 50 49 49 47 44 42 41 42 44 57 57 57 57 56 59 60
57 56 56 56 56 56 54 53 53 53 54 52 51 50 51 52 52 52 50 49 50 49 48 46 44 44 44 48 56 57 57 56 56
59 58 57 57 57 56 56 55 54 53 54 54 53 51 49 47 49 51 52 51 51 51 51 50 47 46 46 49 50 55 57 56 56
59 59 59 58 58 57 57 57 56 55 54 55 55 54 50 49 48 49 49 50 50 51 51 51 49 47 46 48 50 51 55 56 56
59 59 59 59 59 59 58 58 58 58 57 56 55 55 54 53 52 50 50 49 48 48 48 48 46 45 46 47 49 53 55 55 57

GFSFLT1_sfc_dewp_012.txt.gz
Dewpoint
58 57 58 58 57 57 58 58 57 58 57 58 59 56 57 58 53 57 59 55 58 57 57 57 56 55 55 55 54 54 54 54 54
59 58 58 59 58 58 57 58 58 57 58 60 58 58 57 54 51 56 55 55 58 57 57 56 55 54 53 55 53 53 52 52 52
60 60 60 60 61 60 59 58 59 60 59 60 61 59 60 54 50 56 54 58 58 57 56 56 56 54 53 53 53 52 52 51 51
61 60 62 62 62 60 60 58 58 59 60 59 60 61 60 55 51 53 55 61 58 58 57 57 57 56 54 52 53 53 53 52 52
63 64 63 63 63 61 60 58 57 58 60 60 60 62 62 55 50 49 54 60 58 58 56 56 57 56 56 54 53 53 52 53 53
62 63 64 64 63 62 60 58 56 58 60 62 62 62 57 54 49 47 58 60 59 58 57 56 55 55 55 55 55 55 54 54 54
60 62 64 64 64 63 61 59 57 59 56 56 60 58 55 53 51 48 55 61 61 60 58 57 55 55 55 55 55 55 55 56 56
57 58 60 62 62 60 59 57 55 53 53 51 49 51 53 52 49 48 54 59 62 61 59 58 57 55 55 55 56 56 56 57 57
56 57 58 59 58 57 57 55 54 53 52 51 47 46 48 50 48 46 53 58 62 61 60 59 59 58 57 57 57 57 57 57 57
55 57 58 58 57 57 56 55 54 53 52 49 47 46 48 49 48 44 50 55 62 61 60 60 60 61 61 60 59 58 58 58 58
55 55 56 56 57 56 56 55 54 53 51 49 46 43 43 43 43 42 42 52 60 62 58 58 60 60 60 61 61 62 61 59 60
55 53 53 53 54 54 54 53 52 51 49 48 47 44 42 41 39 38 37 41 54 61 58 58 60 60 59 60 61 63 63 63 62
54 54 53 52 52 52 52 51 51 50 49 49 48 48 48 46 42 40 38 38 38 46 59 60 59 60 59 58 58 61 62 62 63
54 54 55 53 52 52 52 52 52 51 51 51 51 50 50 50 48 44 41 38 39 39 46 54 58 58 59 57 56 59 60 60 61
55 54 54 55 54 53 53 52 53 52 52 51 51 52 52 51 51 50 49 46 42 40 39 40 45 56 58 58 57 58 59 59 60
55 55 55 55 55 54 53 52 52 52 52 51 52 52 52 52 52 52 51 50 48 45 42 41 41 42 54 58 59 59 59 59 60
56 56 55 55 55 55 55 53 53 53 53 52 52 51 51 52 52 53 52 51 51 50 48 45 43 43 43 45 56 58 59 58 59
59 58 57 57 56 56 56 55 54 54 55 53 53 51 50 49 49 51 53 52 52 51 51 50 49 48 46 48 49 54 57 57 58
59 59 59 58 58 57 57 57 56 55 55 56 54 54 54 52 51 51 49 51 51 51 52 51 51 51 49 50 50 52 54 56 58
54 55 57 59 59 58 58 58 58 57 57 57 56 56 55 55 54 52 52 51 50 50 50 51 51 51 51 51 50 53 55 56 58

GFSFLT1_sfc_dewp_015.txt.gz
Dewpoint
59 58 57 58 58 58 60 59 58 58 58 59 59 57 56 57 52 58 59 57 58 58 56 56 56 55 56 55 54 54 53 53 53
59 58 58 59 59 59 58 60 59 59 58 58 59 58 59 54 51 56 57 55 60 58 57 57 56 55 55 55 54 53 53 53 52
59 61 59 60 60 60 59 58 59 60 60 60 61 61 61 55 50 53 56 57 60 59 59 58 57 56 54 56 55 54 53 53 52
59 61 60 61 62 62 61 60 59 59 60 60 60 63 62 56 52 52 55 58 61 59 58 58 58 57 56 55 56 55 55 54 53
62 64 63 62 63 63 62 61 59 58 59 60 61 62 63 57 53 50 54 59 62 59 59 58 58 58 58 56 55 55 55 55 55
61 63 64 63 63 63 63 62 60 60 60 61 62 62 59 56 53 49 53 59 62 60 59 59 58 58 58 58 57 56 55 55 55
59 61 64 63 63 64 63 62 61 60 55 56 60 59 57 55 53 51 54 57 61 61 60 60 58 57 57 58 57 57 57 57 57
58 58 58 60 61 61 61 60 58 54 54 54 53 52 53 54 53 52 55 57 59 62 61 61 60 58 57 57 57 57 57 57 57
56 56 56 57 59 58 57 56 56 54 52 51 51 49 48 49 50 51 55 56 57 59 61 62 61 60 59 58 57 57 58 58 58
56 56 56 56 57 57 56 55 55 54 53 52 51 50 47 46 47 48 52 54 56 57 59 62 62 61 61 60 59 60 59 58 59
56 55 56 56 56 57 57 56 55 54 53 53 51 49 46 45 46 47 48 54 56 56 58 58 60 60 61 62 63 63 63 61 61
57 55 54 55 56 56 56 55 54 53 53 52 51 49 47 45 43 42 41 43 52 55 56 57 60 62 60 60 63 64 64 64 64
56 55 55 54 53 53 53 53 53 52 52 51 50 49 49 47 45 43 42 41 40 45 52 57 59 61 61 57 59 62 62 63 63
55 55 55 54 53 52 52 52 51 51 51 51 50 50 49 49 49 48 47 45 44 42 47 52 55 58 59 58 57 60 60 60 62
54 54 54 54 54 53 53 52 52 52 51 51 51 52 52 52 51 51 50 49 47 44 43 44 45 53 56 58 58 60 60 59 60
54 54 54 54 54 54 54 53 52 52 52 52 52 52 52 52 52 52 52 52 51 50 46 45 44 45 53 55 57 59 61 60 60
57 56 56 56 55 55 55 54 54 53 53 52 53 52 52 53 52 53 52 52 52 52 51 49 46 45 46 46 53 56 58 58 61
57 58 58 58 57 56 56 56 55 54 55 53 53 52 51 51 51 51 53 52 53 52 52 51 49 48 47 48 49 52 54 56 58
48 49 51 53 57 58 57 57 56 56 55 56 55 54 55 53 52 53 52 52 52 52 52 52 51 50 50 51 51 52 54 55 58
45 45 45 46 46 47 50 56 58 59 57 57 57 57 55 55 54 52 53 54 52 52 52 52 52 52 52 52 52 54 56 57 58

GFSFLT1_sfc_dewp_018.txt.gz
Dewpoint
59 59 58 58 58 58 59 60 59 58 59 59 60 59 57 58 52 54 57 59 60 58 57 58 57 56 56 56 55 56 55 55 55
59 59 58 58 59 59 58 59 60 60 59 60 59 60 60 55 52 52 58 58 60 59 58 57 57 56 55 56 55 55 55 55 55
60 60 60 59 60 60 60 59 58 60 60 60 60 61 62 56 51 50 56 59 61 61 59 59 58 57 56 57 57 56 55 55 54
61 60 61 60 61 62 62 61 61 59 59 60 60 62 63 57 53 50 54 59 62 62 59 59 59 59 58 56 57 57 56 55 55
62 64 63 61 62 63 63 62 62 61 59 59 61 62 63 59 56 53 50 59 62 62 61 60 59 59 59 58 57 57 57 57 56
60 62 63 63 63 62 63 63 62 63 62 61 61 62 59 57 56 53 55 57 62 62 62 61 60 59 59 59 59 57 57 57 57
59 60 62 62 63 63 63 63 64 63 57 55 57 57 57 56 55 54 58 58 59 61 62 62 61 60 59 59 59 59 58 58 57
57 57 57 57 60 59 61 60 59 57 55 54 53 53 52 54 55 55 59 59 59 60 60 61 62 62 61 59 59 59 59 58 58
56 56 56 55 56 57 57 57 57 56 55 53 52 51 50 50 50 52 56 58 59 58 60 60 61 63 63 62 60 60 60 59 58
56 56 55 55 56 56 56 56 56 55 55 54 52 52 51 49 48 47 51 54 56 57 57 58 60 60 64 64 64 63 62 61 62
57 56 56 55 56 56 56 56 56 56 55 54 53 52 51 50 48 46 46 52 54 57 58 59 57 58 59 64 64 64 64 63 63
57 56 56 56 56 56 56 55 55 55 54 54 54 53 51 50 48 46 46 47 54 55 57 58 58 59 58 59 63 63 64 64 64
56 57 56 56 54 55 55 54 54 54 53 53 53 52 51 50 49 48 47 46 45 48 53 56 57 59 58 58 59 62 62 62 63
56 56 56 55 54 53 53 53 52 52 52 52 51 51 50 50 50 49 48 47 47 46 49 53 55 57 59 59 59 61 61 60 61
55 55 54 54 54 54 53 53 53 52 53 52 52 52 52 52 51 51 51 50 50 48 47 48 49 54 56 58 59 62 62 61 60
55 54 54 55 54 54 55 54 53 53 54 52 53 53 53 53 52 53 52 52 52 51 50 49 49 48 54 56 57 59 61 62 62
52 55 56 56 56 55 55 54 55 55 55 53 54 53 53 54 53 53 53 53 53 53 52 51 49 48 48 49 54 57 58 59 61
45 46 47 49 53 55 55 56 56 55 56 55 54 52 51 53 54 52 53 53 53 53 53 52 52 50 48 50 51 54 56 57 60
44 44 44 45 46 45 45 46 52 54 54 56 56 56 55 51 50 54 55 52 52 52 53 53 52 52 51 51 51 52 54 56 59
43 43 44 44 45 44 45 45 46 47 48 50 52 53 53 53 52 50 51 53 55 55 53 53 53 53 52 52 52 54 55 57 59

GFSFLT1_sfc_dewp_021.txt.gz
Dewpoint
59 58 58 57 58 58 58 59 60 60 58 59 59 60 59 58 56 55 58 59 60 62 59 59 60 60 59 57 56 56 57 55 56
58 59 57 57 59 59 59 58 60 60 60 60 60 61 62 56 55 54 57 60 63 62 60 59 59 58 57 57 56 56 56 56 56
59 59 59 60 59 60 60 60 59 59 60 60 60 59 62 58 57 55 54 60 63 62 62 60 59 59 58 57 58 57 56 56 56
62 60 60 61 60 61 62 63 62 61 60 60 60 62 62 59 60 56 53 55 62 63 63 61 60 60 59 58 57 58 58 57 56
63 64 63 61 61 62 63 63 63 62 62 61 62 62 62 58 59 59 56 57 59 63 63 63 61 60 60 60 59 58 59 58 58
60 61 63 63 63 62 62 63 63 64 63 62 62 62 54 56 58 58 59 60 59 60 63 63 63 62 61 60 60 60 58 58 58
60 60 61 62 62 63 63 63 63 64 61 60 59 56 54 53 54 56 60 62 61 60 60 62 62 62 63 61 60 60 61 60 58
60 60 59 59 59 58 59 59 59 59 59 59 58 57 55 53 52 54 59 61 62 61 59 60 61 62 63 63 62 61 60 60 60
59 59 59 59 58 58 58 57 57 58 58 58 57 56 55 53 52 52 56 57 58 59 60 59 59 61 62 63 65 64 63 63 63
59 59 58 58 58 57 57 57 56 56 56 56 56 56 55 54 53 52 54 55 57 57 57 58 58 58 60 62 64 65 65 64 63
59 58 58 58 58 57 57 57 57 57 56 56 56 55 55 54 54 53 52 55 56 58 59 58 58 59 59 60 63 64 65 65 64
59 58 58 58 57 57 57 57 57 56 56 56 55 55 54 54 54 53 52 52 55 56 59 60 60 59 59 59 62 62 62 64 65
58 58 57 57 57 56 56 55 55 55 55 54 54 54 54 53 53 53 53 52 51 53 56 58 60 60 60 60 60 62 62 62 62
57 56 56 56 56 56 55 54 54 54 55 54 54 54 54 54 53 53 53 53 53 52 54 55 56 59 60 61 61 63 62 62 61
56 56 56 56 56 56 56 56 56 55 55 54 54 55 55 55 54 54 53 53 53 53 53 53 52 55 56 58 60 62 63 63 62
50 50 49 51 52 53 53 55 55 54 56 55 54 55 55 55 55 55 55 54 54 54 54 53 53 52 56 56 58 59 61 63 63
42 44 44 44 45 44 44 47 48 50 52 53 54 51 51 52 55 55 55 55 55 55 54 54 54 54 53 54 56 58 59 60 61
42 43 43 43 43 43 43 43 45 43 45 47 50 48 46 50 51 52 54 54 55 55 55 55 55 54 54 55 54 55 56 58 60
40 41 42 41 42 40 41 40 42 44 43 44 42 47 47 44 43 43 48 49 51 51 52 53 54 55 55 55 54 54 55 57 59
38 39 40 39 38 38 39 39 40 41 41 42 43 44 45 45 46 43 42 44 45 48 49 50 51 53 54 56 56 56 57 58 60

GFSFLT1_sfc_dewp_027.txt.gz
Dewpoint
58 58 59 58 58 59 58 58 60 61 60 61 60 60 62 61 56 54 54 54 59 58 61 63 61 60 61 61 60 59 58 58 58
58 60 58 58 58 59 59 59 59 59 59 61 60 61 63 57 55 56 54 55 58 61 62 62 61 61 60 60 59 59 58 58 58
60 59 59 60 60 60 61 61 61 61 60 60 60 61 61 56 54 57 57 59 57 61 63 63 63 63 61 60 60 59 60 59 58
61 61 61 60 61 61 61 62 64 64 63 62 62 63 63 58 55 54 55 61 58 59 61 63 63 64 63 62 61 61 60 60 59
62 63 63 61 62 62 62 62 62 63 64 64 64 64 64 57 54 54 54 62 59 59 60 61 63 63 63 64 62 62 61 60 61
59 62 63 61 61 62 62 62 62 64 65 65 65 64 58 55 52 51 58 60 59 61 61 61 61 62 63 65 64 63 62 62 61
57 60 62 62 63 62 63 62 63 63 58 58 63 60 57 55 54 52 59 58 57 59 61 61 61 62 62 64 65 64 64 63 62
56 57 57 59 60 59 59 59 59 57 56 56 55 55 55 55 55 56 61 59 57 59 60 60 61 61 61 62 63 65 66 66 65
55 55 56 57 57 57 59 57 56 56 56 56 55 55 55 56 56 57 61 62 59 60 61 61 60 60 61 61 62 64 65 66 66
55 55 56 56 57 56 57 57 57 57 56 56 56 56 56 57 57 58 60 62 62 61 62 63 63 62 61 61 63 64 64 65 66
58 58 58 58 57 57 57 57 57 57 57 57 56 56 56 56 57 57 57 62 63 62 62 63 64 64 64 63 63 63 64 64 65
59 59 59 58 57 57 57 57 58 57 58 57 56 56 55 56 56 56 57 58 61 62 63 63 63 63 65 65 65 65 64 63 63
58 58 57 58 58 58 59 58 56 56 55 54 54 53 53 53 53 54 55 56 56 58 63 63 63 62 62 63 64 65 65 64 64
58 58 55 53 54 52 50 48 48 49 48 47 47 48 49 50 49 50 51 54 56 56 58 60 62 63 61 61 62 62 63 64 64
48 46 43 43 43 41 42 42 42 41 41 37 38 41 43 45 45 50 50 51 54 51 51 53 55 60 62 61 62 61 61 62 63
41 41 40 41 40 40 39 40 41 41 41 40 41 41 41 42 43 40 39 40 42 43 42 46 50 52 59 61 61 60 61 61 61
39 40 39 39 39 38 37 37 38 38 38 37 37 35 36 39 37 35 38 38 40 41 41 42 43 44 43 50 58 59 59 58 59
35 36 34 35 35 34 34 33 37 33 34 33 33 32 29 34 35 36 35 33 33 36 36 35 37 39 41 46 48 54 54 54 56
29 29 29 27 28 27 30 25 32 31 29 30 26 35 33 33 32 30 29 30 28 29 32 32 33 36 41 44 48 51 51 49 52
25 24 25 23 23 24 26 26 29 27 27 29 29 31 34 33 27 24 25 28 28 29 33 34 36 33 33 40 42 47 47 47 49

GFSFLT1_sfc_dewp_030.txt.gz
Dewpoint
59 59 59 58 58 59 58 58 59 60 61 60 60 60 61 63 58 57 55 55 57 59 60 61 63 61 61 62 61 60 59 58 58
59 57 59 58 59 58 59 59 60 59 59 59 59 60 63 59 56 54 55 53 56 58 61 62 62 61 61 60 60 60 60 59 58
61 62 60 60 61 59 60 62 63 63 62 61 61 62 63 58 55 55 55 59 58 58 60 62 63 63 64 62 61 61 60 60 60
61 62 61 61 61 61 61 62 62 63 64 64 64 65 64 61 58 55 54 60 60 60 60 60 62 64 63 65 63 62 61 61 61
64 64 64 63 62 61 62 62 62 62 63 64 66 65 64 61 58 56 54 61 60 60 60 60 61 63 63 64 64 64 63 62 61
61 63 63 63 61 61 62 62 62 64 65 65 65 65 61 59 56 54 59 62 60 59 60 61 61 61 62 63 65 65 65 63 63
59 60 61 63 63 63 62 63 64 64 61 59 61 62 60 59 56 54 61 61 57 58 60 61 61 62 62 62 63 64 65 65 65
57 58 59 59 61 60 60 61 61 60 59 57 56 59 59 56 55 57 63 64 60 59 60 62 61 62 62 62 62 63 65 66 66
55 55 57 57 58 58 58 58 57 57 56 56 55 55 55 56 56 57 62 64 63 62 62 62 62 63 63 62 63 64 65 65 66
56 56 56 57 57 57 57 58 57 57 57 57 57 56 56 56 57 57 60 63 65 65 63 63 63 64 64 64 65 64 65 65 65
59 59 59 59 58 58 57 57 57 57 57 57 57 56 56 56 56 56 56 62 64 65 64 64 64 64 64 64 65 65 65 65 65
59 59 59 59 59 58 58 58 58 57 56 55 53 54 53 53 53 54 55 57 60 63 64 65 65 64 64 64 63 64 65 65 65
57 58 54 54 58 55 50 48 48 48 48 46 48 50 47 48 50 50 50 52 54 58 62 65 64 63 62 62 62 62 63 64 64
50 48 44 45 46 45 43 42 43 42 42 40 39 40 41 42 42 44 44 44 39 41 51 57 60 62 63 61 61 62 62 63 63
44 43 42 43 43 42 41 40 41 41 41 36 38 40 40 41 41 41 33 33 38 40 39 41 45 54 56 53 56 58 59 61 61
41 43 41 41 41 38 36 37 37 37 38 37 33 33 35 35 35 31 30 37 33 38 34 36 37 36 48 50 50 52 53 54 57
35 36 37 34 36 34 32 32 35 35 34 33 30 32 31 33 29 32 36 32 33 27 30 28 28 32 35 40 48 50 51 53 54
32 31 30 30 31 31 29 29 31 33 32 28 29 31 30 28 31 32 33 25 23 29 26 24 28 29 31 40 39 44 51 49 51
26 28 27 25 28 26 27 24 28 30 29 30 28 30 30 29 30 31 24 24 23 22 27 25 30 33 32 36 38 44 44 43 46
24 24 24 23 26 24 24 24 26 30 29 29 29 28 31 32 25 22 21 24 25 27 28 30 26 25 28 29 30 41 40 42 43

GFSFLT1_sfc_dewp_033.txt.gz
Dewpoint
61 60 59 58 58 59 58 57 58 58 59 60 60 60 61 63 59 56 56 56 58 57 60 61 61 62 61 62 63 62 61 60 59
61 60 60 59 59 59 59 59 60 60 60 59 59 59 63 60 57 55 54 54 61 58 59 62 62 62 62 62 61 61 61 60 60
61 60 61 60 61 60 60 61 62 63 63 62 62 63 64 60 57 55 55 58 61 61 59 60 62 63 63 63 63 62 61 61 61
62 62 62 62 61 61 61 61 62 62 63 64 65 65 65 62 59 58 56 59 61 61 61 61 61 62 63 64 63 65 63 62 61
64 65 65 63 62 62 61 61 62 62 62 63 65 66 66 63 61 59 57 61 62 61 61 61 61 61 62 63 64 64 66 64 63
61 63 63 65 63 62 62 62 63 64 65 65 65 64 63 61 60 59 60 62 62 62 63 64 61 62 62 62 62 63 64 64 65
58 61 63 64 64 64 63 63 64 64 62 60 61 59 61 61 59 58 61 62 62 62 63 63 63 61 62 62 62 62 62 63 66
57 58 59 59 60 59 60 60 61 61 60 59 58 58 60 59 59 59 62 63 63 63 65 64 64 64 63 63 63 63 63 63 65
55 56 57 58 58 58 58 58 57 58 58 58 56 56 56 56 56 57 62 64 64 63 66 66 65 66 64 64 64 66 65 65 65
56 56 57 57 57 57 57 57 57 57 57 57 57 57 56 56 57 57 60 63 65 64 64 64 65 65 64 65 66 65 65 65 65
59 59 59 59 59 58 58 57 56 54 52 50 51 52 53 54 53 54 54 60 61 62 61 62 62 62 62 64 65 65 64 65 65
59 59 57 57 53 47 44 43 44 44 42 41 42 45 45 43 44 47 50 52 57 55 53 55 58 60 61 62 62 63 64 63 64
53 46 44 45 44 43 42 43 42 41 42 41 41 40 40 40 41 42 43 40 35 44 51 51 52 54 56 58 59 60 62 62 62
43 42 42 43 42 41 40 40 40 39 39 35 35 39 36 40 40 39 30 30 36 39 45 49 51 48 48 50 52 52 53 55 57
42 40 38 41 39 36 35 35 35 36 36 28 35 30 34 37 36 33 24 32 36 36 34 35 39 44 42 45 46 47 49 49 50
36 38 35 35 35 31 29 33 33 34 33 33 25 31 33 30 27 20 32 33 32 25 25 29 26 26 40 41 44 47 48 48 48
30 32 31 29 31 28 27 28 32 34 32 29 29 29 31 30 22 29 31 30 22 23 23 20 23 25 28 38 41 42 42 44 46
29 27 26 27 28 28 26 25 28 31 31 27 28 27 27 24 30 28 30 21 23 25 23 26 26 28 29 31 34 37 37 41 45
26 25 24 24 26 23 25 24 26 29 29 30 28 28 29 28 28 30 23 24 22 24 26 27 29 28 26 31 33 34 35 38 40
23 23 23 21 25 22 22 24 23 25 29 29 29 25 27 30 27 19 21 22 23 24 25 23 28 25 24 26 27 32 33 38 41

GFSFLT1_sfc_dewp_036.txt.gz
Dewpoint
61 61 59 58 58 58 58 57 57 58 59 59 60 61 61 62 59 57 56 56 59 61 58 61 62 61 62 61 63 63 63 62 61
62 61 61 59 59 59 59 59 60 61 61 61 60 60 62 60 57 56 55 55 61 62 60 60 62 63 62 62 62 62 61 61 61
62 61 62 61 60 60 59 60 62 63 64 64 63 64 65 61 59 57 56 58 60 61 62 61 60 62 62 62 63 63 63 62 61
62 62 62 62 62 61 61 61 61 61 62 63 64 66 66 63 61 59 58 60 62 60 62 62 62 61 61 62 62 63 63 65 63
64 65 65 62 62 62 62 61 62 62 63 63 65 66 65 63 62 61 60 63 63 63 62 62 61 62 62 62 62 63 64 64 65
61 63 64 65 64 63 62 62 63 64 65 65 65 65 62 61 61 61 62 63 65 64 63 63 64 62 64 63 63 62 62 63 63
58 60 63 64 65 65 63 63 65 65 62 61 62 59 59 59 61 60 62 64 65 65 64 65 65 64 64 64 63 64 63 63 63
59 59 60 61 60 59 60 59 59 59 60 59 59 58 58 59 60 60 63 64 65 64 66 66 66 65 65 65 63 64 64 65 65
56 56 57 57 58 58 58 58 57 57 57 57 57 56 56 57 57 58 61 62 62 61 61 63 65 65 65 64 65 66 65 65 65
55 56 56 57 57 57 57 57 56 52 48 46 46 48 51 50 51 52 56 58 57 56 57 58 61 63 64 64 64 65 65 64 65
59 58 58 58 56 51 44 44 44 43 42 41 41 43 42 42 42 44 48 53 49 52 53 53 54 56 58 59 61 62 62 62 62
54 48 47 45 43 42 41 41 41 40 40 39 40 38 38 39 39 43 40 37 44 47 49 50 49 53 54 55 55 55 55 56 56
43 43 43 42 41 40 39 39 37 38 38 35 34 36 34 35 40 37 29 30 37 41 43 43 46 45 47 49 51 52 51 51 52
41 41 41 39 37 35 36 34 35 35 33 29 29 33 30 36 34 27 23 32 36 33 34 41 38 39 42 45 47 47 48 49 50
38 35 36 36 32 30 30 30 31 34 31 28 29 24 30 36 28 22 29 35 30 27 26 30 27 36 39 40 44 47 46 46 46
33 32 30 32 29 27 26 28 31 32 30 28 25 29 32 27 20 25 32 29 22 23 23 21 25 28 36 40 42 43 44 45 43
27 28 27 27 27 25 24 26 28 31 30 26 28 27 29 27 16 29 29 24 22 26 21 23 24 27 30 32 38 39 41 41 41
25 25 25 25 26 25 24 25 25 28 30 28 25 19 23 23 26 20 26 18 25 22 25 25 24 24 29 30 32 35 36 39 42
24 24 22 23 25 22 23 24 23 25 28 29 28 27 26 24 23 28 20 23 19 24 25 24 25 22 29 30 32 32 35 38 41
22 22 21 20 23 20 20 21 21 24 28 27 28 26 25 26 27 18 18 19 20 21 22 25 22 28 25 27 28 32 34 38 41

GFSFLT1_sfc_dewp_039.txt.gz
Dewpoint
61 60 59 58 58 58 58 57 57 57 58 58 58 60 61 63 58 58 57 57 59 61 61 60 61 62 62 62 62 63 64 63 62
62 61 60 59 59 59 59 59 59 60 61 61 61 61 63 60 58 57 56 55 60 61 62 62 60 62 64 62 61 62 62 62 61
62 62 62 61 60 60 59 60 61 62 63 64 64 64 65 62 60 59 57 59 62 60 62 62 63 61 61 62 63 64 64 64 63
63 63 63 62 62 62 61 61 61 61 62 62 63 65 66 64 62 61 60 62 64 63 61 62 63 63 62 62 62 62 62 64 63
65 64 65 63 62 62 62 62 61 62 62 63 65 65 65 62 61 62 61 64 65 65 64 63 63 63 63 63 63 63 62 62 63
60 63 64 64 64 64 63 62 63 64 65 64 65 64 62 60 60 61 62 64 65 65 65 65 65 64 65 65 65 64 64 64 63
59 60 63 64 65 65 63 64 65 65 62 61 61 59 58 58 59 60 63 64 65 65 65 66 65 65 66 65 65 64 64 64 65
59 59 58 59 61 59 59 58 58 58 58 59 58 58 57 57 59 59 59 59 61 61 61 62 63 64 64 64 64 65 65 64 65
57 57 57 57 57 57 57 57 57 57 55 52 48 47 49 48 51 50 55 56 55 55 56 58 59 60 62 64 64 64 64 64 65
55 55 57 57 57 57 54 51 45 42 42 40 41 42 41 40 42 44 53 49 51 53 54 54 55 57 58 60 60 60 61 61 61
58 56 52 46 45 44 43 41 41 40 39 36 37 35 37 36 38 42 36 46 46 48 51 50 51 53 53 54 54 55 55 56 56
46 45 44 43 42 40 38 36 36 35 34 31 31 32 33 32 39 31 26 36 42 42 45 48 47 47 48 49 51 51 51 51 52
43 43 41 38 36 36 34 33 32 33 31 28 27 32 27 32 33 24 25 35 33 34 41 41 40 42 43 46 46 47 49 50 50
40 39 37 33 31 31 31 31 33 32 28 26 28 27 25 35 24 20 29 34 28 27 32 34 34 37 40 42 45 46 47 47 47
34 33 31 30 28 27 26 28 30 33 29 26 24 23 28 33 22 23 29 29 23 25 25 23 27 34 37 38 42 45 45 45 45
29 30 28 28 26 24 23 27 28 31 29 25 26 28 30 27 19 25 27 23 21 26 20 23 25 26 35 36 39 42 42 42 43
25 26 26 24 25 23 23 24 25 28 30 27 27 23 22 25 16 24 28 20 24 25 20 24 24 25 27 28 37 36 38 41 41
24 23 24 24 24 24 24 23 23 25 28 27 21 17 16 23 24 19 25 18 24 20 24 25 22 25 23 30 31 34 36 38 42
23 22 22 22 23 20 23 21 21 25 25 27 26 26 24 20 20 25 19 21 15 21 24 22 24 24 23 31 31 33 34 38 41
21 21 20 20 22 19 19 19 19 23 25 25 26 24 24 24 24 15 16 14 16 19 21 24 22 22 27 27 29 31 34 37 40

GFSFLT1_sfc_dewp_042.txt.gz
Dewpoint
60 60 58 58 58 58 57 57 57 58 58 58 57 58 59 61 58 57 57 57 59 60 61 61 60 62 62 62 62 62 62 63 63
61 61 59 59 58 59 59 59 59 59 61 62 62 62 64 61 58 57 57 56 61 60 60 62 62 61 61 64 63 62 62 62 62
63 61 61 60 59 59 59 59 60 62 62 63 63 65 66 63 60 60 59 61 64 64 62 61 63 63 62 61 61 63 63 64 64
63 63 62 61 61 61 61 61 61 61 62 62 63 65 65 63 62 62 61 63 65 65 64 63 62 63 63 63 63 63 63 62 63
66 65 65 62 62 62 63 62 62 62 62 63 65 65 65 61 60 60 61 64 65 66 66 66 65 64 64 66 65 64 64 64 64
60 63 64 64 63 63 63 63 63 65 65 64 63 63 60 58 59 59 62 64 65 66 66 66 65 65 65 65 65 66 64 64 65
59 60 61 62 64 64 64 63 63 60 59 59 60 58 57 57 58 59 57 58 61 62 62 62 62 63 64 65 65 65 65 65 65
58 58 58 58 60 59 58 58 58 57 57 55 52 50 48 48 50 49 55 55 57 57 57 58 59 60 60 62 63 64 64 65 65
57 57 56 56 57 56 57 57 55 44 42 40 42 42 40 41 42 45 50 51 53 55 55 56 56 58 59 60 60 59 60 60 61
55 55 57 57 56 52 47 43 42 38 36 35 36 35 36 34 39 39 47 48 50 52 53 52 54 54 54 55 55 56 56 56 57
58 53 45 43 43 42 40 37 36 34 32 27 28 30 31 31 38 27 34 44 44 47 50 50 49 49 49 51 51 51 52 52 53
48 44 42 41 40 35 32 32 33 30 28 24 25 29 25 34 26 25 31 35 39 43 45 44 43 45 46 47 48 48 49 50 51
43 41 37 33 32 31 30 31 32 29 28 25 25 27 23 35 19 26 32 32 26 33 38 38 40 41 43 45 46 47 47 48 48
38 35 32 28 27 27 28 29 33 29 26 23 25 23 24 33 18 27 31 25 24 27 30 33 34 36 39 42 44 44 46 46 47
32 29 27 27 25 24 24 25 29 31 28 24 21 25 29 30 20 27 28 22 23 26 21 24 27 33 35 38 40 41 44 44 43
27 27 25 26 23 23 21 25 24 30 28 24 25 26 26 29 22 24 27 21 21 24 19 21 24 26 33 35 36 40 41 42 43
24 24 24 23 24 23 21 21 22 25 29 25 25 19 18 22 16 22 26 19 24 21 14 21 23 24 27 30 33 37 38 41 42
23 23 23 23 24 24 22 21 23 22 25 27 21 13 13 22 22 21 26 17 21 16 20 22 22 22 26 28 29 34 35 39 41
22 22 21 21 23 20 21 20 21 23 23 24 24 23 23 17 17 22 18 19 13 16 21 21 22 24 25 28 31 32 34 38 41
20 20 20 20 22 19 18 18 18 21 22 22 23 22 22 23 22 13 16 15 15 17 20 22 19 21 23 26 28 32 35 38 40

GFSFLT1_sfc_dewp_045.txt.gz
Dewpoint
60 60 59 58 58 58 57 58 58 59 58 59 60 60 60 61 58 58 58 58 59 60 60 61 61 61 62 63 63 62 62 62 63
61 60 60 59 58 59 59 59 59 60 61 63 63 63 64 62 62 61 61 61 63 63 62 60 62 63 63 61 64 63 62 62 62
62 61 60 60 59 59 59 60 60 61 62 62 63 64 65 62 62 62 62 63 65 65 64 63 62 63 64 63 62 61 62 64 64
63 62 62 61 61 61 62 61 61 61 62 63 63 65 65 62 61 61 60 62 65 66 66 66 65 63 64 64 64 64 63 63 63
65 64 65 62 61 62 63 63 62 62 63 64 64 64 63 60 60 60 60 64 65 66 66 66 66 66 65 66 65 65 64 64 64
61 63 64 63 63 63 64 64 64 65 63 62 62 61 59 58 58 59 60 59 62 63 63 63 63 64 65 66 66 66 65 65 66
60 60 60 61 62 63 62 61 60 60 59 58 56 52 48 49 48 48 56 56 58 59 59 60 60 60 61 62 64 65 65 66 66
59 59 59 60 60 60 59 59 59 55 47 45 45 43 41 40 41 46 52 53 55 56 57 57 57 60 60 61 60 60 60 61 61
59 58 58 59 59 59 59 55 45 43 38 35 37 34 34 32 39 38 52 51 51 54 55 55 56 56 56 56 57 57 58 58 58
57 57 59 58 54 49 45 43 38 34 29 26 28 32 26 32 35 34 50 48 49 51 53 52 52 51 51 53 52 52 53 54 55
59 53 47 45 43 40 38 35 32 29 25 23 25 29 24 37 27 33 38 44 47 48 49 48 48 48 48 48 49 49 51 51 53
50 46 44 41 36 31 31 32 30 28 24 22 24 25 22 35 26 32 29 29 41 42 42 42 42 43 44 46 47 47 48 49 50
44 40 36 32 31 31 29 31 31 26 24 22 24 23 26 23 28 31 27 27 26 30 37 36 37 39 41 44 45 45 45 46 48
39 33 31 26 28 29 26 30 30 25 23 22 22 26 29 23 26 28 26 26 27 25 26 31 31 34 37 41 43 43 43 44 45
32 29 26 26 25 24 26 25 28 25 25 19 19 28 34 25 25 23 26 24 25 24 21 19 19 30 35 37 39 40 42 44 44
27 28 25 26 23 21 20 25 24 24 26 23 22 25 25 30 28 19 27 23 23 20 16 15 17 20 30 32 36 39 40 41 42
24 25 24 24 22 21 22 23 23 23 28 21 23 19 17 22 19 26 24 21 20 17 14 15 17 20 21 26 33 34 38 40 42
24 24 23 24 24 23 23 24 25 21 25 24 19 15 13 18 19 21 25 18 17 15 16 17 17 19 21 25 27 31 35 38 41
22 23 22 22 23 22 21 20 22 24 19 22 19 23 20 13 11 19 18 18 14 16 17 16 18 19 21 25 29 32 34 38 41
21 22 23 21 21 20 20 19 20 19 21 21 20 20 20 23 19 10 13 15 16 17 17 17 18 19 21 23 25 31 34 38 40

GFSFLT1_sfc_dewp_048.txt.gz
Dewpoint
61 60 59 59 59 59 58 59 59 60 61 62 61 61 61 62 58 59 58 58 61 62 60 59 61 62 61 62 63 64 63 63 63
61 60 60 59 59 60 60 60 60 61 62 63 63 64 64 61 59 60 61 61 64 65 64 63 61 63 64 65 62 64 65 62 62
62 61 61 60 60 60 60 60 60 61 61 62 63 64 65 60 59 60 61 62 64 65 65 65 65 63 63 64 65 63 62 62 64
64 62 62 61 61 61 62 61 61 61 61 62 64 65 64 61 60 59 59 64 65 66 66 66 66 66 65 65 65 65 65 64 64
65 64 64 61 62 62 63 63 62 63 64 64 64 63 63 59 59 59 60 62 62 64 65 64 64 65 66 66 66 66 66 65 65
61 63 63 62 63 63 63 64 65 63 62 61 61 60 58 57 57 57 57 58 59 60 60 61 61 61 62 63 65 65 65 66 66
59 60 60 60 62 62 62 61 60 60 59 57 56 52 50 50 49 49 54 55 57 57 58 59 59 61 62 62 61 61 62 62 63
57 58 57 59 60 59 59 59 59 54 51 49 48 46 45 44 43 47 53 53 53 54 57 57 57 57 57 57 58 58 59 59 59
57 57 58 59 59 59 60 56 50 47 42 39 38 37 35 32 36 42 51 51 54 53 56 54 53 53 53 54 54 54 54 55 56
58 57 57 59 58 55 52 49 44 41 36 33 31 32 27 30 32 37 48 48 52 52 51 50 50 50 50 51 51 51 52 53 53
58 58 55 52 48 43 41 40 40 36 29 26 25 27 25 32 31 34 39 47 47 46 46 45 45 46 46 47 47 48 49 49 50
59 52 49 46 40 37 38 36 32 30 27 26 25 25 22 33 30 33 31 34 41 41 40 40 40 41 43 45 45 46 46 47 47
50 47 42 38 38 34 32 32 32 29 27 25 25 24 25 26 28 30 28 29 25 29 34 36 36 38 40 42 44 45 44 44 46
46 40 34 32 32 32 29 31 29 27 26 22 22 27 30 27 25 26 26 28 28 25 24 27 27 31 37 39 41 42 42 43 44
38 32 30 30 30 29 29 28 26 24 24 18 19 27 32 27 28 25 22 25 26 24 22 19 18 26 31 35 38 41 42 41 43
30 30 29 29 27 24 23 25 25 25 24 21 21 25 25 30 29 25 23 24 22 20 16 16 16 17 28 30 34 38 40 41 42
34 29 29 26 24 24 23 24 24 23 25 21 24 21 19 23 27 21 23 19 20 16 16 16 16 18 20 24 32 33 37 40 42
28 29 26 26 25 25 25 26 26 23 24 22 21 19 18 16 18 21 17 18 16 17 18 18 17 18 19 24 25 30 35 39 42
26 25 24 25 24 23 22 21 21 23 21 23 17 22 17 13 12 16 16 16 14 18 18 17 17 19 20 25 28 29 32 37 41
26 23 24 23 22 22 22 21 20 18 21 21 20 19 18 19 18 14 14 15 17 17 17 18 18 18 19 21 23 29 34 38 40

GFSFLT1_sfc_dewp_051.txt.gz
Dewpoint
61 60 59 59 59 59 59 60 60 61 63 62 62 62 63 64 58 58 60 59 63 64 63 62 60 61 62 62 62 63 64 63 63
61 61 60 60 60 60 60 61 61 62 63 63 64 64 63 61 58 58 60 62 63 65 64 64 65 63 63 64 65 64 63 65 64
62 61 61 61 61 61 61 61 61 61 62 62 63 64 65 60 58 60 61 64 64 66 65 65 66 66 65 64 64 65 65 63 63
63 63 62 62 61 62 62 61 61 61 62 63 64 64 64 61 59 59 60 64 64 65 65 64 65 65 66 66 66 66 66 66 66
65 65 64 62 62 63 63 63 63 63 64 63 62 62 64 60 58 59 57 60 61 62 62 62 63 63 63 64 65 66 66 66 66
62 63 64 63 63 63 64 64 64 63 63 61 60 61 56 55 55 55 56 57 59 59 59 60 61 62 64 62 62 62 63 63 63
58 60 62 61 62 63 62 61 61 61 58 58 57 52 50 50 50 50 54 55 57 57 59 59 59 59 59 59 59 59 60 60 60
57 58 57 59 60 59 60 60 59 55 51 50 49 47 46 44 44 49 52 52 53 57 58 57 55 55 56 56 55 55 55 56 57
55 56 58 59 57 58 59 57 52 49 45 43 41 40 40 35 39 48 51 51 51 56 54 53 53 52 52 53 52 53 53 54 55
56 56 56 57 58 57 55 51 47 45 42 39 34 33 31 30 37 43 52 52 52 51 51 49 48 48 48 48 48 49 50 50 51
57 56 58 56 54 49 46 45 43 41 33 30 28 28 31 29 32 37 44 48 46 46 45 44 43 44 45 45 46 47 48 48 48
59 57 55 52 48 44 44 40 36 33 32 30 28 27 25 29 29 35 35 41 41 39 40 41 40 42 43 44 45 46 47 46 46
58 54 51 46 44 41 39 35 34 33 31 29 30 28 28 27 27 32 31 35 29 37 32 32 34 35 39 43 44 44 44 44 46
54 50 45 43 40 37 34 34 31 31 30 29 26 32 32 30 26 28 28 31 33 31 28 26 29 28 33 38 41 43 43 44 44
48 43 41 38 36 33 34 33 29 27 26 20 22 30 33 34 34 29 25 27 29 28 29 27 25 28 28 34 36 40 42 42 43
40 37 37 37 36 31 29 29 29 29 26 28 32 32 30 32 32 32 27 28 26 24 22 22 22 21 29 30 32 38 39 41 42
41 39 38 32 31 28 27 28 29 28 28 26 32 30 27 28 30 30 25 24 24 21 20 20 21 23 24 28 32 32 36 40 42
41 37 36 34 32 32 30 31 32 30 29 26 25 26 26 22 26 24 24 21 24 22 22 22 21 21 22 26 27 30 33 37 41
35 33 30 29 31 30 30 25 25 28 25 29 19 27 21 19 17 24 22 21 17 21 22 21 21 22 24 27 28 30 31 36 41
33 34 34 28 30 28 28 25 23 20 25 25 23 21 21 20 20 20 20 20 21 21 21 20 21 21 23 24 25 29 33 37 40

GFSFLT1_sfc_dewp_054.txt.gz
Dewpoint
61 60 60 60 61 61 62 62 62 63 63 63 63 63 64 66 62 59 60 62 63 64 64 63 63 61 61 62 64 63 63 64 63
61 60 60 60 60 61 61 61 62 63 63 63 63 63 65 61 59 59 62 63 64 65 64 65 65 65 64 63 64 65 65 63 63
62 61 61 61 61 62 62 62 61 61 62 63 63 64 65 61 60 60 62 65 64 65 65 65 66 66 66 66 66 65 65 66 65
63 63 62 62 63 63 62 62 61 62 63 63 64 64 64 62 60 58 59 64 63 64 63 63 64 64 64 65 66 66 67 67 66
65 66 65 63 63 64 64 63 63 63 64 63 63 63 63 61 57 55 57 60 61 61 61 62 63 64 64 63 63 64 64 64 64
64 64 65 65 64 64 64 64 65 65 65 63 63 62 58 52 52 53 58 58 59 60 60 62 61 60 60 61 61 60 60 61 61
60 62 64 65 65 65 64 62 63 63 60 60 60 54 48 49 50 52 54 54 54 59 60 59 57 57 58 58 57 57 56 57 58
59 59 59 60 61 61 63 61 60 52 49 48 47 44 43 40 48 51 53 55 57 59 57 56 55 54 54 54 54 54 55 56 56
56 59 58 59 58 60 60 56 50 48 44 40 38 36 36 33 46 50 54 51 56 55 54 52 51 51 50 50 50 50 51 52 52
56 57 58 58 58 57 55 50 47 43 40 35 30 30 29 28 39 49 55 54 52 51 49 48 47 47 46 46 47 48 48 49 50
57 57 58 55 51 47 45 45 43 38 32 31 28 28 28 29 30 44 48 49 48 46 45 44 44 44 45 45 46 46 47 47 48
58 58 55 52 48 45 43 39 35 35 33 31 29 26 25 25 28 37 42 43 44 39 38 38 39 39 42 45 45 45 46 46 46
56 55 51 47 45 42 38 37 35 33 31 30 29 27 28 27 28 31 32 36 35 37 32 31 33 33 37 41 44 44 45 45 46
55 48 45 44 41 39 36 33 31 31 30 27 24 28 29 28 26 27 27 28 29 29 31 31 31 31 33 37 41 42 43 44 45
50 46 44 40 38 36 36 32 30 28 27 23 25 28 32 29 30 27 26 27 25 25 23 24 25 31 32 36 37 38 42 42 43
42 40 38 37 35 33 30 30 30 29 28 27 28 29 30 30 29 30 27 26 24 21 20 21 22 23 29 31 33 37 38 40 43
40 39 38 34 32 29 29 30 29 28 27 24 28 27 26 28 27 31 24 23 22 20 18 19 19 20 23 27 31 33 36 39 41
45 42 42 42 42 39 33 30 30 29 27 23 25 23 24 21 24 24 25 18 22 20 21 21 20 20 21 27 28 30 33 37 40
40 40 40 37 35 30 28 27 25 29 26 27 22 24 21 18 17 22 21 19 17 19 22 20 20 20 23 27 30 29 31 35 40
38 34 31 32 33 26 26 24 22 23 26 25 23 21 22 19 19 20 20 21 22 22 22 20 21 21 21 24 26 28 31 35 39

GFSFLT1_sfc_dewp_057.txt.gz
Dewpoint
61 60 61 62 63 64 64 63 64 64 64 64 64 64 64 65 61 60 63 62 64 64 63 63 64 63 60 61 63 64 65 63 64
61 61 61 61 62 62 62 62 63 64 64 64 63 63 64 61 60 61 62 63 64 64 64 65 67 66 66 65 63 64 64 65 63
61 61 62 62 62 62 62 62 62 63 63 63 63 63 64 61 60 61 62 65 64 65 64 64 65 64 65 67 67 67 66 66 66
62 62 62 63 63 63 63 63 62 63 63 63 63 65 64 61 59 57 60 65 63 62 63 63 63 66 65 64 64 65 65 65 65
64 65 65 63 64 64 64 63 63 64 64 63 64 63 63 60 54 55 58 61 60 61 61 63 62 62 63 62 61 61 61 61 62
64 64 65 65 64 65 64 65 65 65 65 64 63 61 56 53 52 54 60 58 59 61 62 61 60 59 60 59 58 58 58 58 59
63 63 65 65 66 66 65 64 65 64 61 60 60 49 45 50 50 52 57 53 56 61 59 58 57 57 56 56 56 56 57 57 57
60 61 62 62 63 63 64 62 60 54 56 52 42 40 37 47 49 52 56 57 58 58 56 55 54 53 52 52 52 52 53 53 53
59 58 58 59 59 59 60 59 51 46 41 38 34 33 30 43 45 53 58 56 58 56 52 51 50 49 49 49 48 49 49 50 51
57 58 58 58 58 58 55 49 45 40 31 30 29 30 28 39 46 52 57 55 53 51 49 48 47 47 47 47 47 48 48 48 49
56 57 58 57 52 48 47 44 41 33 31 31 27 26 27 32 45 48 50 52 49 46 44 43 42 43 45 47 47 47 47 48 48
57 57 53 50 46 44 40 36 34 33 31 28 28 26 24 26 37 44 43 44 44 40 38 38 38 39 41 44 45 46 47 47 48
57 55 50 46 45 42 38 36 34 32 31 28 28 27 28 26 31 39 38 37 37 36 33 33 35 35 38 40 43 44 44 46 46
54 49 46 43 40 38 34 32 32 29 28 25 24 28 30 28 28 28 28 31 32 30 29 34 32 33 36 39 41 40 42 43 44
48 46 43 40 37 37 33 29 29 28 25 22 25 28 31 29 29 26 27 27 26 25 23 23 24 30 31 34 37 39 41 41 42
47 44 39 37 35 33 30 31 28 27 27 25 26 30 30 28 29 30 26 26 25 22 19 21 21 22 28 29 34 36 38 40 41
42 39 38 33 31 30 28 29 29 28 27 24 29 26 25 28 29 31 27 24 23 20 18 18 19 20 22 27 31 31 34 38 40
43 40 40 39 40 38 35 30 30 29 27 24 25 21 24 22 24 27 25 19 22 20 22 21 20 20 20 26 27 30 32 36 40
40 40 41 40 41 39 33 28 27 30 27 26 23 24 21 15 11 21 22 21 19 21 22 22 20 20 23 27 32 31 31 34 39
44 41 37 37 38 31 28 26 24 26 27 27 24 21 22 20 19 17 21 21 21 22 22 21 20 21 22 24 27 31 32 35 38

GFSFLT1_sfc_dewp_060.txt.gz
Dewpoint
62 63 64 65 65 65 64 64 64 63 63 63 64 64 63 62 60 59 62 62 63 63 61 61 64 64 61 60 62 64 65 64 63
61 61 63 63 64 64 64 64 64 64 64 64 63 62 64 60 60 62 62 63 65 65 66 66 66 67 67 66 65 64 64 64 65
61 61 61 62 63 63 63 63 63 63 63 63 62 64 64 60 62 61 62 65 64 64 64 64 65 66 66 65 65 66 67 66 67
62 62 62 62 63 63 62 62 63 63 63 63 63 64 64 59 59 58 60 65 62 62 63 64 65 64 63 62 62 62 62 63 63
63 64 64 64 64 63 63 63 63 63 63 63 63 63 61 55 54 56 59 61 61 62 64 63 62 61 60 61 60 60 60 60 61
63 64 65 65 64 64 64 64 64 65 65 64 63 57 54 52 53 54 61 59 61 63 62 60 60 59 59 58 57 58 59 59 59
63 63 65 66 66 66 65 65 66 64 61 59 55 45 50 49 50 53 59 55 61 60 58 57 57 56 55 54 55 55 55 55 54
62 62 63 63 63 63 65 63 60 58 59 47 40 38 46 47 49 54 59 57 60 57 55 54 52 51 51 51 51 51 51 52 52
60 60 60 60 61 60 60 59 55 44 42 37 33 30 40 44 46 55 57 60 57 54 52 50 49 48 48 48 48 49 49 50 50
59 58 58 58 58 58 59 57 44 34 30 29 29 29 35 43 50 53 58 57 54 51 49 48 46 45 47 47 47 48 48 49 49
59 58 57 57 58 57 53 45 39 33 31 28 26 27 32 43 49 49 52 53 50 47 43 42 42 42 43 45 46 47 48 48 48
57 57 57 55 50 46 40 35 34 32 30 28 26 25 24 36 45 46 45 45 47 41 38 37 38 38 41 42 45 45 45 46 46
56 56 53 48 45 41 37 35 33 32 29 26 27 27 27 28 42 41 39 37 37 36 34 33 34 36 39 42 43 42 42 44 44
57 54 49 45 42 38 35 33 31 28 26 25 24 28 30 30 32 36 33 34 34 29 33 33 31 32 35 37 40 41 41 42 43
54 49 45 41 38 35 32 29 29 27 24 22 25 29 32 29 29 28 27 30 27 26 22 22 23 30 30 32 35 39 40 40 41
49 46 41 38 37 34 29 30 25 24 25 24 26 31 30 28 30 30 27 27 25 22 19 21 21 22 29 29 32 35 36 38 40
47 43 38 36 34 31 30 29 29 28 26 23 29 26 25 28 27 30 28 25 23 20 19 19 19 20 22 27 33 32 34 37 40
47 42 39 38 43 35 34 36 37 32 26 24 26 23 21 21 22 26 24 20 22 21 22 21 21 20 20 26 29 34 34 36 39
47 42 40 42 41 39 41 37 34 32 27 27 23 25 21 14 10 20 23 22 19 20 22 22 21 21 24 27 32 34 34 36 39
47 45 42 43 41 38 36 35 33 28 29 28 24 22 23 20 18 15 20 22 21 22 22 21 21 21 22 25 29 33 35 37 40

GFSFLT1_sfc_dewp_063.txt.gz
Dewpoint
63 64 66 67 66 66 65 64 63 63 62 63 64 63 63 62 60 56 60 62 63 62 63 67 64 65 64 60 61 63 64 65 63
63 64 65 65 65 65 65 65 64 64 64 64 63 63 63 60 60 61 62 63 66 66 66 65 65 66 67 66 66 66 64 65 66
62 63 64 64 64 64 64 64 64 63 63 63 63 63 63 62 62 61 62 66 64 65 65 65 66 65 65 64 64 64 65 66 65
62 61 62 63 64 64 63 63 63 63 63 63 63 63 63 60 58 59 60 65 63 63 65 64 64 63 62 60 61 61 62 63 63
63 64 64 63 63 63 63 63 63 63 63 63 63 62 61 54 55 57 59 62 63 64 63 62 62 61 59 59 60 60 60 59 59
63 63 65 65 64 64 63 63 64 65 64 63 58 58 54 53 53 54 61 61 63 62 61 60 58 58 58 57 57 57 57 57 56
62 62 65 66 66 66 65 65 66 64 60 57 49 51 50 49 51 54 60 58 62 60 58 57 56 55 54 53 53 53 53 54 53
62 61 62 62 63 63 64 63 61 58 59 43 40 47 47 48 48 54 61 60 59 57 55 53 52 51 51 50 51 51 51 51 51
60 60 60 60 61 60 60 59 54 44 42 36 32 40 44 44 48 55 59 60 57 54 52 51 49 49 49 49 49 50 50 50 50
60 59 59 59 59 59 58 57 43 34 31 30 30 30 41 44 52 54 59 58 54 51 50 47 46 46 47 48 48 48 49 50 50
60 59 58 58 58 58 58 52 37 32 29 27 27 29 40 46 50 51 54 55 51 47 44 43 43 42 44 44 46 47 47 48 48
60 58 57 57 57 56 46 36 33 32 29 27 25 25 31 44 47 47 46 45 49 43 40 40 40 41 42 43 45 43 44 46 46
58 57 57 55 51 45 38 35 33 31 30 26 27 27 27 35 44 43 40 38 37 37 36 34 35 36 38 40 42 43 43 43 44
57 57 55 48 44 40 37 34 32 29 26 25 26 28 29 34 40 38 35 35 32 29 35 33 32 32 34 36 38 40 41 42 43
57 54 50 45 41 37 35 31 29 27 24 23 26 29 31 30 34 34 29 33 29 26 22 22 23 33 31 32 35 38 38 39 40
55 52 46 43 40 36 32 29 25 24 26 26 28 30 31 28 29 29 28 28 26 21 20 21 21 22 32 33 34 35 36 38 39
54 49 45 41 38 32 30 30 29 26 25 23 28 25 25 28 27 30 27 25 24 20 20 20 20 21 22 27 34 36 36 38 40
55 49 44 41 42 40 37 34 33 32 33 28 27 24 21 23 22 26 24 22 22 22 22 21 21 20 22 27 30 35 35 38 40
52 48 46 43 44 42 45 44 38 35 33 30 25 24 22 14 9 20 21 21 19 19 22 21 21 21 25 27 32 34 35 38 41
51 47 45 47 48 47 46 45 37 33 34 30 24 22 23 20 15 11 18 22 21 22 22 21 21 20 22 24 28 32 34 38 39

GFSFLT1_sfc_dewp_066.txt.gz
Dewpoint
63 66 67 68 68 68 67 65 64 63 62 64 64 63 63 62 57 57 60 62 64 65 67 67 66 67 65 60 62 62 64 65 65
64 64 67 66 66 66 65 65 64 64 63 64 63 63 63 60 59 61 61 63 65 66 66 66 66 66 66 66 65 67 66 66 66
63 65 65 66 65 65 65 65 65 64 64 63 64 63 63 62 61 61 62 65 65 65 66 66 65 64 63 63 62 63 65 65 66
63 64 64 64 65 64 64 64 63 63 63 63 63 63 63 58 58 59 60 65 64 65 64 63 63 62 61 60 61 60 60 60 61
63 64 65 64 64 64 63 62 63 64 64 63 62 63 59 54 56 58 60 64 64 63 62 61 61 59 59 59 59 59 59 58 58
62 63 65 65 64 63 63 63 64 65 64 60 60 59 53 53 52 53 61 63 63 62 61 59 59 58 56 56 56 56 56 56 55
62 62 65 66 65 65 64 64 65 62 59 49 55 51 49 49 51 55 60 63 61 59 58 57 56 54 54 54 54 53 54 54 53
61 60 62 62 63 63 63 63 60 59 53 41 48 47 47 47 48 52 61 61 59 57 54 53 52 51 51 51 52 52 52 52 52
59 59 60 60 61 60 60 59 49 55 41 35 41 43 44 44 50 55 62 60 57 54 53 51 50 50 50 50 50 50 51 51 51
59 59 59 59 59 59 58 56 41 37 33 31 30 39 40 48 53 55 59 58 54 52 50 48 47 47 48 47 48 49 49 50 49
59 59 58 58 58 58 58 50 35 32 28 28 29 36 42 48 50 52 54 56 52 49 46 45 44 44 44 46 46 47 47 48 48
60 59 58 58 57 57 52 39 33 31 29 26 25 31 41 47 48 48 46 46 51 45 44 43 42 41 42 43 44 44 43 44 45
59 59 58 57 56 53 44 36 33 32 30 27 27 26 29 44 45 44 39 39 37 39 39 37 37 37 38 40 40 41 42 42 43
58 58 58 56 52 47 40 35 34 31 28 26 27 28 28 37 42 40 36 36 31 31 36 36 34 33 34 36 37 39 40 41 41
58 57 56 52 48 42 37 33 29 29 25 23 26 30 31 32 39 37 33 35 29 26 23 22 24 34 34 34 35 37 38 39 40
58 57 53 49 46 43 36 31 27 25 25 27 28 29 31 28 30 32 28 29 26 21 20 21 21 23 32 33 35 37 39 39 39
58 55 52 48 43 38 33 31 28 26 27 24 27 24 27 29 28 30 27 26 24 20 20 20 19 21 22 30 34 35 36 39 40
57 54 52 48 46 42 37 35 37 37 32 31 33 26 25 25 22 27 27 24 22 22 21 20 20 21 24 30 33 35 37 39 41
56 55 51 48 47 44 41 44 48 46 40 35 31 29 28 20 13 20 21 21 20 19 22 21 20 22 24 27 31 33 34 37 40
55 52 50 47 47 47 45 46 44 43 42 39 39 29 27 19 16 12 18 22 22 22 21 21 20 20 22 24 29 33 34 38 40

GFSFLT1_sfc_dewp_069.txt.gz
Dewpoint
64 69 69 69 69 69 67 65 63 63 64 65 64 64 64 61 60 62 64 64 66 67 67 67 67 67 66 67 65 62 65 67 67
65 68 68 68 68 67 66 65 64 63 65 64 64 64 63 60 62 63 64 64 65 66 67 66 66 64 64 65 66 67 67 66 66
64 66 66 66 66 66 66 65 65 64 64 64 64 64 63 62 62 63 63 66 64 66 66 64 63 63 62 62 62 63 63 63 63
64 65 66 66 65 65 65 65 64 64 64 64 64 64 62 60 61 60 61 66 65 64 64 62 61 61 61 61 60 60 60 60 60
65 66 66 65 65 65 65 63 64 64 64 63 63 63 59 58 59 60 61 65 64 63 62 60 60 60 60 59 59 58 57 57 57
61 63 65 66 65 64 63 64 65 65 62 61 62 58 55 54 54 57 63 63 61 60 60 59 58 57 56 56 56 56 56 55 55
61 62 64 65 65 65 64 65 65 62 55 56 56 54 51 51 54 55 62 62 60 59 57 56 55 54 54 54 54 54 54 54 54
61 62 63 64 63 63 64 64 62 60 51 50 52 50 48 47 53 54 64 60 59 56 54 53 52 52 52 53 53 53 53 53 53
61 61 63 64 64 64 64 62 56 59 45 47 47 46 45 45 48 53 62 60 57 54 53 51 51 51 51 51 51 52 52 51 51
61 60 61 62 63 62 62 58 49 51 40 37 42 42 42 49 56 58 60 59 54 53 50 49 48 48 48 49 49 49 50 50 50
61 60 60 61 61 61 60 55 44 42 36 34 33 39 44 50 55 55 54 57 53 49 48 46 45 45 46 47 46 46 47 47 47
60 60 60 60 60 60 59 46 39 35 32 31 32 38 43 48 52 51 50 49 52 48 45 44 42 42 43 43 44 44 43 44 44
61 61 60 60 59 58 56 46 38 36 34 32 30 31 40 45 48 47 44 43 40 43 41 39 37 38 39 40 40 41 42 42 43
61 61 61 60 59 57 52 44 40 37 35 33 31 31 31 41 44 44 40 40 38 37 39 38 36 35 35 36 38 39 39 40 41
61 60 60 60 58 55 49 44 37 37 34 23 28 32 33 37 42 42 36 38 34 35 34 28 29 36 36 36 37 38 39 40 40
60 60 59 58 57 54 49 41 37 32 30 31 31 32 34 32 37 39 35 35 32 28 25 25 25 25 32 33 35 38 37 39 40
60 60 59 57 55 52 46 39 34 32 31 32 32 31 29 32 31 33 32 32 29 25 24 23 23 25 25 33 35 36 39 41 42
60 59 58 56 55 51 46 42 42 38 32 32 35 31 32 30 28 31 31 29 28 25 24 23 23 23 28 29 32 34 36 38 40
59 59 58 56 54 52 48 44 45 45 40 35 30 32 32 30 24 24 27 27 25 25 24 22 23 24 25 29 31 33 34 37 40
59 58 58 56 54 52 48 45 46 46 44 42 35 32 30 23 23 23 25 24 24 23 22 22 22 23 24 26 29 31 34 37 39

GFSFLT1_sfc_dewp_072.txt.gz
Dewpoint
68 70 69 69 69 69 66 63 63 64 65 65 64 64 61 62 62 64 65 65 67 68 67 67 67 67 66 67 62 66 67 67 67
69 68 69 69 69 67 66 64 63 65 65 64 64 64 62 59 61 62 63 63 66 66 66 65 65 64 64 65 66 65 65 65 66
67 68 68 68 67 67 66 65 64 65 64 64 64 63 64 59 60 61 62 65 66 66 64 63 63 62 62 62 62 62 63 63 63
65 67 67 67 67 66 66 65 64 64 64 64 65 64 63 59 59 58 59 66 65 65 63 61 61 61 61 60 60 59 59 59 60
66 67 67 66 66 65 65 64 64 64 64 64 64 62 61 58 59 59 61 64 62 62 60 60 60 60 59 58 58 57 57 57 57
62 64 65 66 65 65 64 64 65 64 63 63 62 61 58 56 56 56 65 62 61 60 60 59 57 57 56 56 56 56 55 56 56
56 61 65 66 66 65 64 66 64 62 57 57 59 56 55 53 52 53 64 61 60 58 58 56 55 54 55 55 55 54 54 54 54
57 59 60 61 63 59 62 63 60 58 54 55 54 53 51 50 51 56 64 61 58 56 55 53 53 53 53 53 53 53 53 53 53
55 56 58 59 58 58 60 59 59 58 53 51 50 49 48 46 47 54 63 60 57 55 53 51 51 52 51 51 52 52 51 51 52
55 55 58 58 58 58 59 59 57 58 50 48 47 45 44 45 46 50 61 60 55 53 51 50 49 49 49 49 50 49 50 50 50
55 55 57 57 58 58 58 58 55 54 50 44 43 42 43 44 49 51 56 58 55 51 49 47 46 46 47 47 47 46 46 47 47
56 55 56 57 57 58 58 58 53 49 45 42 38 40 41 44 47 49 49 51 53 50 47 46 43 43 43 43 44 44 43 43 44
56 55 56 56 57 57 57 55 52 47 43 40 38 39 41 41 44 46 45 44 41 47 46 42 40 39 40 40 40 40 41 42 42
57 57 56 57 58 57 57 56 52 48 44 41 38 36 36 40 40 42 43 43 40 38 42 42 38 36 36 36 37 39 38 40 40
59 58 58 58 59 58 57 55 53 51 47 36 35 37 35 35 39 41 39 39 39 37 38 36 33 37 36 36 36 37 40 40 40
60 59 59 59 59 58 56 54 51 47 45 39 38 36 35 34 36 39 38 38 36 34 34 28 26 28 33 32 34 35 36 38 40
60 59 59 58 59 59 57 54 50 49 43 45 45 42 35 33 33 37 36 36 34 31 29 26 27 27 26 33 35 36 38 38 40
62 61 60 58 58 59 59 55 52 48 43 43 47 44 44 35 34 33 35 33 34 31 29 27 26 25 26 31 32 33 34 37 39
62 62 62 61 59 58 58 55 53 52 46 39 36 39 37 36 32 30 32 31 30 31 30 26 26 26 27 29 31 31 33 36 39
62 62 62 61 60 59 58 54 53 52 51 45 39 36 34 30 32 37 27 28 29 29 27 25 24 25 26 27 29 30 32 35 38

GFSFLT1_sfc_dewp_075.txt.gz
Dewpoint
67 68 69 69 69 68 65 63 64 65 65 65 64 62 61 64 63 64 65 66 68 67 68 67 67 67 68 64 66 67 67 67 67
70 69 69 69 69 66 64 64 65 66 65 65 64 63 63 60 61 63 63 64 67 67 66 65 65 65 66 65 65 65 65 65 65
69 68 69 68 68 67 65 64 65 65 65 65 64 63 64 58 59 62 63 67 66 65 63 63 63 63 63 63 62 62 62 62 63
67 68 68 68 67 67 66 65 65 65 65 65 64 63 63 59 58 57 61 66 65 64 62 61 62 61 61 60 60 59 59 59 60
67 68 68 67 67 66 65 64 64 64 64 64 64 62 62 57 58 59 62 64 62 61 60 61 60 59 59 58 58 57 58 58 58
63 65 67 67 66 65 64 64 65 65 65 64 64 63 57 56 55 60 65 62 61 60 60 58 58 57 57 57 56 56 56 56 56
57 63 65 66 66 66 65 66 65 64 58 60 60 58 55 53 52 60 65 61 61 59 58 56 55 56 56 55 55 55 55 55 55
56 60 61 62 63 61 63 64 60 58 55 56 55 54 52 51 51 61 64 61 58 57 56 54 54 54 54 54 54 54 53 53 54
53 55 57 59 59 57 58 59 58 57 54 53 52 51 50 49 50 60 63 61 57 55 54 53 53 53 52 53 52 52 52 52 53
52 54 56 57 56 56 57 57 57 57 52 51 50 49 47 47 46 58 61 61 57 54 52 52 51 51 51 51 50 50 50 50 50
54 53 56 56 56 56 57 57 57 57 54 49 48 47 46 46 47 55 57 59 57 53 51 50 49 48 49 49 48 46 46 47 47
54 54 55 56 56 56 57 57 55 54 53 49 45 45 44 46 47 50 54 53 55 53 50 48 46 46 46 46 45 44 43 43 44
55 54 54 54 56 56 56 57 55 53 50 47 45 43 44 45 45 47 47 50 46 51 51 48 44 43 43 42 42 41 41 41 41
55 54 54 53 55 56 56 57 54 53 50 49 45 44 45 45 42 44 45 46 45 45 50 49 45 41 40 40 39 39 39 40 41
57 55 55 55 56 56 57 57 55 53 51 46 43 44 43 43 43 42 42 43 44 42 42 41 39 40 39 38 37 37 39 39 40
59 58 57 57 57 57 56 56 56 54 54 49 45 45 42 40 40 42 42 41 41 40 39 39 34 36 38 36 34 34 35 38 41
60 60 59 58 58 58 58 56 55 54 53 48 48 46 43 40 38 39 40 40 39 37 37 34 32 35 33 39 35 37 38 36 39
62 61 61 60 59 58 59 58 56 53 52 50 51 49 48 42 40 38 39 38 39 37 35 32 31 31 33 37 36 35 34 35 38
64 63 62 61 60 59 59 59 57 54 52 48 48 50 44 44 37 37 36 37 35 37 35 31 31 31 33 35 36 35 32 34 37
63 62 62 62 62 60 59 59 59 54 54 48 47 45 43 41 39 39 33 35 35 35 33 30 30 29 32 35 35 32 31 33 37

GFSFLT1_sfc_dewp_078.txt.gz
Dewpoint
67 68 69 70 70 66 64 64 65 66 65 64 62 61 63 64 65 65 66 66 68 68 68 67 67 68 68 67 67 66 66 67 67
70 69 70 69 69 65 65 65 66 66 65 65 63 63 64 61 61 62 64 65 67 66 65 65 65 66 66 65 65 65 65 64 65
69 69 70 69 67 65 65 65 66 66 65 65 63 64 64 61 61 64 65 67 65 64 63 63 63 63 63 62 62 62 62 62 63
69 69 69 68 68 67 65 65 66 65 65 65 63 64 64 60 60 63 64 66 63 63 62 62 62 62 61 60 60 60 60 60 60
69 69 69 69 68 67 66 65 65 65 65 65 64 63 63 58 60 62 63 63 62 61 61 61 60 60 59 58 58 58 58 58 58
65 66 67 68 68 66 65 65 65 66 65 65 65 63 59 56 60 62 65 62 62 61 59 59 58 58 57 57 57 57 57 57 57
61 65 66 67 67 66 66 66 66 64 61 61 62 59 58 53 59 62 64 62 61 60 58 57 57 57 56 56 56 56 55 55 56
62 63 64 64 64 63 65 66 64 60 58 59 57 57 53 52 59 63 64 61 59 58 56 56 56 55 55 55 55 54 55 55 55
56 60 61 61 62 61 61 62 60 58 56 56 56 52 50 50 59 63 63 61 58 56 55 55 55 54 54 54 53 53 53 53 53
54 56 58 58 60 58 58 59 58 57 55 52 51 49 47 46 51 61 61 61 58 55 54 54 54 53 53 52 51 51 51 51 51
54 54 56 57 57 56 58 58 57 57 54 50 49 47 47 46 54 59 59 60 59 54 53 52 52 51 51 51 49 48 47 47 47
54 54 56 57 57 56 57 57 57 56 56 50 47 47 45 46 48 57 55 57 58 56 52 51 50 50 50 49 48 46 44 45 44
54 55 55 56 56 56 56 57 56 54 53 49 46 44 45 45 46 49 54 51 49 55 54 51 49 49 47 47 46 45 43 41 41
56 55 55 55 55 56 56 57 56 53 50 48 45 43 45 45 44 46 46 50 47 47 54 53 50 47 46 45 44 43 41 40 40
57 55 54 54 55 56 56 56 56 53 51 47 44 43 43 44 44 43 44 44 44 45 44 44 42 47 44 43 42 41 40 39 39
57 56 55 55 55 55 55 56 55 54 51 48 44 44 42 40 41 43 43 42 42 41 40 39 38 40 43 42 40 39 36 38 40
58 57 56 56 56 56 56 55 55 54 54 49 44 43 43 42 39 40 41 41 41 39 39 38 35 35 37 35 38 37 40 39 38
61 59 58 58 57 57 57 56 55 54 53 49 49 47 46 40 40 38 40 39 39 38 36 34 30 32 35 40 39 40 37 36 37
63 62 61 60 60 58 58 58 56 54 52 50 48 50 44 41 36 37 37 38 37 37 35 31 30 28 36 38 38 38 35 34 36
63 64 63 61 61 60 59 58 58 56 54 51 49 48 43 40 38 34 33 35 35 36 33 30 29 28 32 33 38 38 34 34 36

GFSFLT1_sfc_dewp_081.txt.gz
Dewpoint
68 67 69 70 68 66 65 66 66 65 64 64 63 64 66 66 65 66 67 66 68 68 67 68 68 68 67 67 67 66 67 67 67
68 69 70 69 68 66 65 66 66 66 65 64 64 64 65 62 64 65 65 64 65 65 65 66 66 66 65 65 64 64 64 64 65
69 69 70 68 66 66 66 66 66 65 64 64 63 64 64 62 64 64 64 66 63 63 63 62 62 62 62 62 62 62 62 62 62
69 70 70 68 66 66 66 66 66 65 65 63 63 64 64 62 63 63 64 65 63 63 62 62 61 61 60 60 60 60 60 60 60
70 69 69 69 68 67 67 66 66 65 65 64 64 63 62 61 62 62 63 63 62 62 61 60 60 59 59 58 59 58 58 58 58
66 67 68 68 68 67 66 66 66 66 65 65 64 63 59 60 62 62 65 62 62 61 60 59 59 58 58 57 57 57 57 57 57
64 65 67 68 67 67 66 66 67 64 62 61 62 59 58 59 61 62 65 62 62 60 58 58 58 57 57 57 56 56 56 56 56
64 64 65 65 64 64 65 66 64 61 59 59 58 58 56 58 61 63 64 62 61 59 57 57 57 56 56 56 55 55 55 55 55
62 62 62 63 62 62 62 63 62 60 59 58 56 56 51 59 61 63 63 62 59 57 57 56 56 56 55 55 54 54 54 54 53
60 61 61 61 61 61 61 61 61 59 58 56 55 51 47 57 61 61 62 62 59 57 56 56 55 55 55 54 53 52 52 52 51
55 58 59 59 60 60 60 59 59 58 56 52 50 47 47 49 60 60 60 61 60 57 56 55 55 54 54 52 51 50 49 49 48
54 55 56 58 58 57 58 57 58 57 56 50 49 47 46 48 59 58 57 58 59 58 55 55 54 54 54 53 50 48 47 46 46
54 54 55 57 57 56 57 57 56 56 55 51 47 46 45 45 56 57 55 55 54 57 57 55 53 53 53 52 50 47 46 44 43
55 54 55 56 56 56 56 56 56 54 52 50 46 44 45 45 46 54 53 52 50 50 56 57 55 53 51 51 50 48 45 43 42
57 55 54 55 55 55 56 56 56 54 51 47 46 43 44 45 45 45 51 51 48 47 49 51 48 53 50 49 48 47 45 44 42
57 55 54 54 54 55 55 55 55 53 51 47 45 44 43 42 44 43 44 45 46 45 45 43 41 45 51 47 46 46 44 42 41
58 57 55 54 54 54 55 55 55 54 51 48 43 41 42 43 41 41 42 42 42 43 42 39 37 39 40 42 46 44 43 42 43
59 57 56 56 55 55 55 55 55 54 53 49 46 45 43 42 41 39 41 41 41 40 40 39 36 36 37 42 42 42 41 43 41
63 60 58 57 58 57 57 57 55 54 53 52 49 50 48 42 39 38 38 39 39 39 38 38 33 34 36 39 41 43 40 38 39
63 62 61 60 59 59 58 58 57 55 55 53 50 49 46 41 39 37 37 41 41 40 37 35 31 32 36 38 40 41 38 37 37

GFSFLT1_sfc_dewp_084.txt.gz
Dewpoint
68 69 70 68 67 65 66 64 64 64 65 65 66 67 67 67 66 66 67 67 68 68 68 68 68 67 67 67 66 66 67 67 68
68 70 70 68 67 65 66 66 65 65 65 64 64 65 65 64 64 64 63 63 65 66 66 67 66 65 64 64 63 63 63 63 65
68 70 69 68 66 66 66 66 65 65 64 64 64 65 65 64 64 64 63 65 64 64 62 62 62 62 62 62 62 62 62 62 61
69 70 69 68 67 67 66 66 66 65 64 63 64 65 65 64 63 63 62 65 63 63 62 61 61 61 60 60 60 60 60 60 60
70 69 68 68 68 68 68 66 66 65 64 64 64 63 64 62 62 62 63 64 62 62 61 61 60 59 59 59 58 59 58 59 59
68 67 68 68 68 68 67 66 66 66 65 64 63 61 60 61 61 62 65 63 62 61 60 59 59 58 58 58 58 58 58 58 58
66 66 67 68 68 67 67 66 67 65 62 61 62 59 59 61 61 62 65 63 61 60 59 58 58 58 57 57 57 57 57 56 57
64 64 65 65 64 64 65 65 63 60 59 59 59 57 56 60 61 63 65 63 61 59 58 58 57 57 57 56 56 56 55 55 55
62 63 63 63 63 62 62 62 61 60 59 58 58 56 55 59 61 62 64 63 61 59 58 58 57 56 56 55 55 55 55 54 54
62 62 62 62 61 61 61 61 60 60 59 58 57 55 51 59 61 61 62 63 61 58 58 57 56 56 55 55 54 54 54 53 52
61 61 61 61 61 60 60 60 60 59 58 57 55 52 49 58 59 59 60 62 62 58 57 57 57 56 55 54 53 52 52 51 50
59 59 60 60 60 60 59 59 59 59 57 54 50 48 46 54 59 59 58 60 61 60 57 57 57 56 56 54 52 50 49 49 48
55 56 57 58 59 59 58 58 57 57 57 54 49 47 46 50 58 58 57 57 56 59 60 58 56 55 55 55 53 50 48 47 46
54 54 55 57 57 57 57 56 56 55 55 54 49 46 46 45 54 56 56 55 54 53 57 59 58 57 55 55 54 51 49 46 44
54 54 54 55 56 56 56 55 56 55 53 51 48 45 45 45 46 53 55 53 52 51 50 54 53 56 55 53 53 52 49 46 44
57 55 54 54 55 55 55 55 55 54 51 48 46 45 44 43 45 45 49 53 51 49 48 50 47 50 55 53 51 50 49 47 44
58 57 55 53 54 54 55 55 54 55 51 48 44 44 44 44 43 43 43 45 49 48 46 46 43 43 46 46 52 49 48 45 43
59 58 57 54 54 54 54 55 55 53 53 49 48 44 44 43 43 41 41 42 43 44 44 43 40 40 41 44 48 48 42 42 43
61 59 57 57 55 54 55 55 55 54 53 52 51 49 47 44 43 39 43 41 41 41 42 43 42 40 38 42 44 44 42 43 41
63 62 60 58 57 57 57 57 56 55 55 54 52 50 48 43 42 43 41 44 43 43 42 41 40 39 41 43 43 43 41 43 44

GFSFLT1_sfc_dewp_087.txt.gz
Dewpoint
70 70 68 67 66 65 64 65 66 66 66 67 68 68 68 67 65 65 67 66 68 68 68 68 68 67 67 66 66 65 67 68 68
69 70 68 66 65 65 64 65 65 65 65 66 66 67 67 64 63 63 62 64 65 64 65 66 66 65 63 63 63 62 62 62 64
69 69 68 66 66 66 65 65 65 65 65 65 65 67 66 64 63 62 62 65 64 63 62 62 62 62 62 62 62 62 62 61 61
69 69 68 67 66 66 66 65 65 65 64 64 65 67 66 63 63 62 62 65 62 62 62 61 61 61 61 60 60 60 60 60 60
70 69 69 68 68 68 66 66 65 65 64 64 65 66 65 62 62 62 63 63 62 61 60 60 59 59 59 58 59 59 59 59 59
68 67 68 68 69 68 66 66 66 66 65 64 63 62 62 61 61 62 65 62 61 60 60 59 58 58 58 58 58 58 58 58 58
67 66 67 68 68 68 67 66 67 64 61 61 62 58 60 61 61 62 65 62 61 59 59 58 58 57 57 57 57 57 57 57 56
65 65 66 65 64 64 65 65 63 60 59 59 58 57 59 60 61 62 65 62 60 59 58 58 57 56 56 56 56 55 55 55 55
62 63 63 63 63 62 62 62 61 59 58 57 57 57 56 59 60 61 64 64 61 59 58 57 56 56 55 54 55 55 54 54 54
61 62 62 62 61 61 60 61 60 59 58 58 58 56 54 58 60 60 62 64 62 59 58 57 56 56 55 54 54 54 54 53 53
61 61 61 61 61 60 60 60 59 58 58 58 57 57 52 57 59 59 60 63 63 60 58 58 57 56 56 54 53 52 52 51 50
61 61 60 60 60 60 59 59 58 58 57 57 56 53 50 56 58 59 58 60 61 62 58 58 58 57 56 55 52 51 50 49 48
59 60 60 60 60 59 58 58 57 57 57 56 54 49 47 49 57 58 57 57 58 60 61 60 58 57 57 56 54 51 49 47 46
57 57 58 58 58 58 58 57 56 56 55 56 55 49 47 46 54 56 56 56 56 55 58 60 60 59 56 57 56 53 49 47 44
55 55 55 56 57 57 56 56 55 55 55 54 53 49 46 46 46 54 56 55 55 54 53 53 56 58 58 56 56 54 51 48 45
55 55 54 55 56 56 56 55 55 54 53 50 49 47 46 44 45 46 51 54 54 53 51 51 52 52 58 56 54 53 52 50 46
58 56 54 54 54 55 55 55 54 55 52 50 46 48 49 45 44 44 45 47 52 51 50 49 49 48 49 51 55 53 50 48 45
59 58 57 54 54 54 54 55 54 54 53 49 51 45 46 44 44 42 42 43 45 47 48 47 47 47 46 47 49 50 48 48 52
60 59 58 58 55 54 54 54 54 54 53 52 51 49 47 46 46 42 41 41 41 42 44 46 45 44 43 46 49 49 49 48 49
63 61 59 58 57 56 55 55 55 55 54 54 53 52 48 45 47 50 48 43 43 43 43 43 44 42 43 45 47 48 48 49 51

GFSFLT1_sfc_dewp_090.txt.gz
Dewpoint
70 68 66 65 65 64 66 67 67 67 68 68 69 67 67 66 65 66 67 66 68 68 68 68 67 66 65 64 65 65 67 67 67
70 68 66 65 64 65 66 66 66 66 67 67 68 68 66 63 62 62 62 63 63 63 63 63 63 63 62 63 62 63 63 62 62
70 68 67 66 65 65 66 66 66 66 66 66 68 67 65 63 62 61 63 66 63 63 63 62 62 62 62 62 62 62 62 62 62
70 68 67 66 66 66 66 65 65 65 65 65 67 67 65 62 61 61 62 65 63 63 62 61 61 61 61 60 60 60 60 60 60
70 68 68 68 68 67 66 65 65 65 64 65 67 66 64 61 61 61 62 63 62 61 61 60 60 60 59 59 59 59 59 59 59
67 67 68 68 69 67 66 66 66 66 64 65 65 64 61 60 61 62 65 62 61 60 60 59 59 59 58 58 58 58 58 58 58
66 66 67 68 68 67 66 66 66 62 60 61 60 59 60 60 60 61 65 62 60 59 59 58 58 58 58 57 57 57 57 57 57
65 65 65 65 64 64 65 64 62 59 59 58 58 57 58 60 60 61 65 62 60 58 58 58 57 57 56 56 56 56 56 56 56
63 64 64 63 63 62 61 61 60 59 58 56 56 56 57 59 59 60 64 64 60 59 58 57 56 56 55 55 55 55 55 55 55
62 62 62 62 62 61 60 60 60 58 57 57 57 56 56 55 59 59 62 64 63 59 58 57 56 56 55 54 54 54 54 54 53
61 61 61 61 61 60 60 59 59 58 57 57 57 57 56 53 57 59 59 63 64 61 58 58 57 56 55 54 53 53 52 51 51
60 60 60 60 60 60 59 58 58 57 56 56 56 55 54 52 56 58 58 59 62 63 59 58 58 57 56 55 53 51 50 49 48
60 60 60 60 59 59 58 57 57 56 56 55 56 54 50 49 54 57 57 57 58 60 62 61 59 58 57 57 55 52 50 48 47
59 60 59 59 59 58 58 56 56 55 55 56 56 55 51 48 49 55 56 56 57 56 58 61 61 61 58 57 57 56 52 48 45
58 58 58 58 57 57 56 56 55 55 55 55 55 53 51 48 47 49 55 55 55 55 54 54 56 59 60 57 57 56 55 51 47
57 57 56 56 57 57 56 55 55 54 53 52 52 50 49 47 46 46 48 54 54 54 53 53 52 53 59 59 56 56 55 54 50
58 57 55 54 55 55 55 55 53 54 53 52 48 50 51 48 46 45 45 46 52 53 52 52 51 51 50 53 58 57 53 53 51
60 57 56 54 54 54 55 55 54 53 52 50 52 47 48 46 46 43 43 43 45 49 51 51 51 50 49 50 52 52 53 53 54
59 59 58 56 55 54 55 55 55 54 53 52 51 50 49 48 48 44 42 42 41 43 44 46 48 48 47 48 51 53 53 54 55
61 61 60 59 59 58 55 55 55 55 55 54 53 53 49 47 50 51 52 44 43 42 42 43 45 45 46 47 50 52 52 53 53

GFSFLT1_sfc_dewp_093.txt.gz
Dewpoint
68 66 65 66 67 67 67 67 68 68 69 68 67 68 68 67 67 65 65 67 68 67 66 65 65 65 64 64 65 65 65 65 65
68 66 66 65 66 67 67 67 68 68 68 68 68 67 66 64 63 64 63 62 64 64 64 63 63 63 63 63 63 63 63 63 62
68 67 66 65 66 67 67 67 67 67 68 69 68 66 65 62 62 63 63 65 63 64 63 62 62 62 62 62 62 62 62 61 61
68 68 67 66 66 67 67 66 66 66 66 68 67 66 64 62 61 61 61 65 63 63 62 62 61 61 61 61 61 60 60 60 60
69 68 68 68 68 68 67 66 66 65 65 67 67 66 64 61 61 61 61 64 62 62 61 61 61 60 60 60 60 60 59 59 59
67 66 67 68 68 67 67 66 66 65 66 67 66 64 62 61 61 61 64 62 61 61 60 60 60 60 59 59 59 59 59 59 58
66 66 67 69 68 68 67 67 65 62 60 61 61 62 62 61 61 61 65 62 61 60 59 59 59 59 58 58 58 58 58 58 58
67 67 67 67 65 65 65 65 63 61 60 60 59 59 61 61 61 62 65 62 60 59 59 58 58 58 57 57 57 57 57 57 57
67 66 67 66 65 65 65 64 62 60 59 58 58 58 60 61 61 61 64 64 60 59 58 58 57 57 56 57 57 56 56 56 56
66 66 66 66 65 64 64 63 62 60 58 58 57 57 58 58 60 61 61 64 63 60 59 58 57 57 56 56 56 56 55 54 54
65 65 66 65 65 64 63 62 62 60 59 57 58 58 58 57 56 59 60 63 64 62 59 59 58 57 56 56 55 55 53 52 52
64 64 64 64 64 63 62 61 61 61 59 57 57 58 57 57 56 57 60 60 62 63 61 60 59 58 57 57 55 53 52 51 50
63 63 63 63 63 63 62 61 61 60 59 58 56 57 56 54 53 55 58 60 59 61 63 62 60 59 58 58 57 54 52 50 49
61 61 61 61 62 62 62 61 60 59 58 58 57 58 58 56 51 52 56 59 59 59 60 61 61 62 59 59 58 58 54 52 49
60 60 60 60 61 61 60 60 59 59 57 56 56 57 57 56 54 51 51 55 58 58 58 58 57 60 61 59 58 58 58 53 50
60 60 59 60 59 59 59 59 58 58 57 56 56 55 55 55 54 52 50 51 54 56 57 57 56 56 59 60 59 57 57 56 52
61 60 59 58 58 58 58 57 57 57 56 56 54 54 53 53 51 51 49 49 50 52 55 56 56 56 55 56 60 60 56 56 56
62 60 60 58 58 57 57 57 57 55 56 55 55 52 51 51 51 47 48 47 47 49 51 53 54 54 53 53 54 56 58 55 55
62 61 60 59 58 57 58 57 57 57 56 55 54 54 52 50 50 50 46 44 44 45 46 47 49 50 51 51 52 53 55 54 57
61 61 61 60 59 59 59 58 58 57 56 55 55 54 52 50 51 52 54 48 45 44 43 43 44 46 48 49 50 54 54 55 56

GFSFLT1_sfc_dewp_096.txt.gz
Dewpoint
65 65 66 67 68 67 66 68 69 69 68 68 69 68 67 68 62 62 63 63 66 66 65 65 64 64 64 65 65 65 65 64 64
66 65 66 67 68 66 67 69 69 69 68 69 68 67 66 62 61 59 60 63 65 65 64 63 63 63 63 63 63 63 63 63 62
66 66 66 67 67 67 68 68 68 69 69 68 67 66 65 60 59 59 60 65 63 63 63 62 62 62 62 62 61 61 61 61 61
67 67 67 67 67 67 67 67 67 68 68 67 66 65 64 58 57 56 58 65 63 62 62 61 61 61 61 61 60 60 60 60 60
69 68 67 68 68 68 67 67 66 66 68 67 66 65 64 58 58 58 60 63 62 62 61 61 60 60 60 60 60 60 60 59 60
65 66 68 68 68 67 67 67 65 67 68 67 65 64 59 58 58 58 64 62 62 61 60 60 60 60 59 59 59 59 59 59 59
65 65 67 68 68 68 67 66 64 63 61 62 63 59 59 59 58 59 64 62 61 60 60 59 59 59 58 58 58 58 58 58 58
66 66 65 64 64 61 64 62 59 59 58 59 58 59 59 59 59 61 63 61 61 60 60 59 58 58 57 57 57 57 57 57 57
63 64 64 63 62 61 60 58 59 58 58 57 57 57 58 59 59 60 64 63 61 60 60 58 58 57 57 57 57 56 56 56 56
61 63 64 63 62 61 61 59 56 56 56 56 56 57 57 59 59 59 62 64 62 60 60 59 58 57 56 56 56 55 55 55 55
62 61 63 63 63 62 61 60 58 56 53 53 55 56 56 57 57 57 59 63 64 62 60 60 59 58 57 56 56 55 54 53 52
62 61 62 62 62 61 61 60 59 58 56 52 53 55 55 57 57 57 57 59 62 64 62 60 60 59 59 58 56 55 53 52 50
62 61 60 61 61 61 60 59 58 58 57 55 53 53 56 56 56 56 56 58 57 61 64 62 61 60 60 59 59 56 54 52 50
61 60 60 60 60 60 60 59 58 57 57 55 55 53 54 56 56 56 56 57 58 57 61 62 62 62 61 60 60 59 56 54 52
62 60 59 60 60 61 61 59 59 57 56 54 55 57 57 58 58 56 55 56 57 58 58 57 57 61 61 61 60 60 59 56 53
62 61 60 60 60 60 60 59 58 58 58 57 56 56 56 56 56 57 56 55 55 56 56 56 56 56 60 61 60 59 59 59 55
62 62 62 61 60 61 60 59 58 57 58 55 56 53 54 55 55 55 55 55 54 54 54 54 55 55 55 56 61 61 59 58 59
64 63 62 62 61 61 60 59 59 57 57 57 55 54 52 54 53 53 53 52 52 52 52 52 53 54 55 56 55 57 59 58 58
65 64 63 63 62 61 61 60 59 58 57 57 56 57 55 53 52 53 49 48 47 49 49 47 48 51 53 54 54 54 56 57 57
64 64 64 64 63 62 62 60 60 58 57 58 58 57 56 54 53 53 54 52 48 47 46 45 46 46 47 51 52 52 53 55 56

GFSFLT1_sfc_dewp_099.txt.gz
Dewpoint
66 66 67 68 68 68 68 68 68 68 68 68 67 68 68 68 59 60 63 63 64 65 65 64 64 64 64 64 64 64 64 63 63
66 66 68 68 66 68 69 69 69 69 69 69 68 66 67 57 57 59 61 62 64 64 63 63 63 63 63 63 63 62 62 62 61
66 66 67 68 67 68 68 68 69 69 68 67 66 66 65 56 57 60 61 64 63 63 63 62 62 62 62 62 62 62 61 61 61
66 67 68 67 68 68 68 68 69 69 68 66 65 65 64 56 56 56 59 64 62 62 62 61 61 61 61 61 61 61 61 61 60
68 68 68 69 68 68 68 67 68 68 67 66 65 64 64 56 57 58 61 63 62 62 61 61 61 61 61 60 60 60 60 60 60
63 65 68 68 68 68 67 66 67 68 67 66 65 64 57 57 57 59 65 62 61 61 61 60 60 60 60 60 59 59 59 59 59
64 65 67 68 68 68 67 65 66 65 61 62 63 59 57 57 58 60 65 62 61 60 60 60 59 59 59 59 59 59 59 58 58
65 64 63 63 65 62 64 62 60 59 58 59 57 57 57 57 57 62 64 62 61 60 59 59 58 58 58 58 58 58 58 58 57
63 62 62 60 59 59 60 58 57 58 57 56 56 56 57 58 58 61 65 63 61 60 60 59 58 57 58 57 57 57 57 57 56
62 61 61 60 60 59 58 56 56 56 54 55 55 56 56 57 58 59 63 64 63 61 60 59 58 57 57 57 56 56 56 55 55
59 61 62 61 60 60 59 58 56 53 52 53 54 54 55 55 56 56 60 63 65 62 61 60 59 58 57 57 56 55 54 53 53
61 59 61 61 60 59 59 58 57 56 53 51 51 53 53 55 56 57 58 61 63 64 62 61 61 60 59 57 56 55 54 52 51
60 59 59 60 60 60 59 59 58 57 56 54 52 51 54 55 55 57 57 59 58 62 64 64 62 61 60 60 59 57 56 53 51
59 58 58 58 59 59 59 58 57 57 57 56 55 54 54 56 55 55 56 58 59 59 62 63 63 63 62 61 61 60 57 55 53
60 58 57 58 59 59 60 58 58 56 56 53 52 56 57 57 58 57 56 57 58 59 59 60 59 61 62 62 61 61 61 58 56
61 62 59 59 59 59 60 59 58 58 58 57 57 57 57 57 58 58 57 57 57 57 58 58 58 58 61 62 62 61 60 61 58
62 62 62 60 60 60 60 60 59 58 59 57 57 55 56 57 56 57 56 56 57 56 56 56 57 58 58 58 61 62 61 60 61
64 63 63 63 62 62 62 61 60 58 59 58 57 56 54 56 56 56 56 55 56 56 55 55 55 56 57 57 57 58 60 60 60
66 65 64 64 63 62 63 62 61 60 59 59 57 59 58 55 55 55 54 53 51 53 53 51 50 51 53 54 54 55 56 57 59
66 66 65 65 65 64 63 63 61 60 60 59 59 58 58 58 55 54 54 52 51 49 48 47 48 48 49 51 52 52 53 56 57

GFSFLT1_sfc_dewp_102.txt.gz
Dewpoint
67 68 68 69 69 68 68 67 66 67 68 68 68 67 68 64 60 61 63 62 64 65 64 64 64 64 64 64 64 63 63 62 62
67 67 68 69 69 70 69 69 69 69 69 68 67 67 65 58 59 60 61 61 64 64 63 63 63 63 63 63 62 62 62 62 62
66 67 65 67 69 69 69 69 69 69 68 66 66 65 64 59 60 61 62 64 63 63 63 62 62 62 62 62 62 62 61 61 61
67 68 67 69 68 69 70 69 69 68 67 65 65 64 64 57 58 60 61 64 62 62 62 62 62 62 62 61 61 61 61 61 60
68 68 66 69 69 69 69 69 68 67 66 65 64 63 64 57 59 61 63 63 62 61 61 61 61 61 61 61 60 60 60 60 60
65 66 67 68 69 68 67 68 69 67 66 65 64 64 59 58 60 61 65 62 61 61 61 61 61 61 60 60 60 60 60 60 59
64 66 67 68 68 68 66 67 68 65 63 62 63 61 57 58 60 62 65 62 62 61 61 60 60 60 60 59 59 59 59 59 58
65 65 65 65 65 65 65 63 63 63 61 60 60 58 58 58 59 63 65 63 62 61 60 60 60 59 59 59 59 58 58 58 58
63 63 62 62 62 62 62 61 60 58 57 58 56 56 57 58 60 63 63 64 62 61 60 60 59 59 58 58 58 58 58 57 57
63 62 62 59 59 60 60 58 57 56 56 55 55 55 56 57 59 61 63 64 63 61 61 60 59 58 58 58 57 56 56 56 56
62 62 61 61 60 60 59 57 55 54 53 53 54 55 55 56 56 59 61 64 64 62 62 61 60 59 58 57 57 56 55 54 53
60 61 62 62 60 59 59 58 57 56 53 51 51 53 54 55 55 57 59 62 63 64 62 62 61 61 60 58 57 56 54 53 51
61 60 61 61 61 60 59 59 58 57 56 54 52 51 53 54 55 56 57 60 60 63 65 64 63 62 61 60 60 59 57 55 52
60 60 60 60 60 59 59 58 58 57 56 56 54 53 52 54 55 55 55 57 59 60 62 63 63 64 63 62 62 61 59 56 54
59 59 58 58 59 59 59 58 58 57 56 54 52 54 54 54 55 56 56 57 57 58 60 60 61 62 63 63 62 62 61 59 57
60 61 58 59 59 59 59 59 57 57 57 56 55 55 56 57 57 58 57 56 57 58 58 59 59 59 62 63 63 62 62 62 59
62 62 61 58 59 59 59 59 58 58 58 56 55 54 55 56 56 57 57 56 56 56 56 57 57 57 58 59 62 63 62 62 62
64 63 62 61 60 60 60 60 59 57 58 57 56 53 52 55 56 55 56 55 55 55 54 53 53 54 55 56 58 59 60 61 61
66 64 63 63 63 62 62 61 60 59 58 58 58 57 56 54 53 54 54 52 50 52 49 48 47 48 50 53 54 55 56 57 59
64 65 65 64 64 64 63 62 61 60 60 59 58 58 58 58 56 53 52 50 49 48 46 46 46 46 47 48 50 51 52 55 57

GFSFLT1_sfc_dewp_105.txt.gz
Dewpoint
67 67 67 68 68 67 66 65 67 69 69 68 68 68 66 64 61 61 63 61 64 65 64 64 64 64 63 63 63 63 62 62 62
65 67 69 69 69 68 66 67 69 69 68 67 67 66 64 60 61 61 60 61 64 64 64 63 63 63 63 63 63 62 62 62 61
66 68 69 70 70 70 69 69 69 68 67 66 67 65 63 61 61 61 62 64 63 63 63 63 63 63 62 62 62 62 62 61 62
66 68 70 69 69 70 70 69 68 67 65 66 66 65 63 59 60 60 61 64 63 63 63 63 62 62 62 62 62 61 61 61 61
64 66 69 69 69 70 70 69 68 66 65 64 64 64 62 60 61 61 62 63 62 62 62 62 62 62 61 61 61 61 61 60 60
65 64 68 69 69 69 69 68 67 66 64 64 64 63 58 60 61 62 64 62 62 62 62 61 61 61 61 61 60 60 60 60 60
65 64 67 68 68 68 68 69 67 64 61 60 62 60 58 60 61 62 65 62 62 62 61 61 61 60 60 60 59 59 59 59 59
65 65 65 65 65 65 64 65 65 62 61 59 59 59 58 60 61 63 65 63 62 61 61 60 60 60 60 60 59 59 59 59 58
63 63 63 63 64 63 62 60 61 61 61 59 59 57 58 59 61 63 64 64 62 61 61 60 60 60 59 59 59 58 58 58 57
62 62 62 62 62 62 61 59 59 58 57 56 56 56 57 59 60 62 62 64 63 62 61 61 60 60 59 58 58 57 57 57 56
63 62 61 60 59 60 60 59 57 56 55 54 54 55 56 57 59 60 62 64 64 63 62 61 61 60 60 59 57 56 56 55 54
63 62 61 61 59 59 58 57 56 54 52 51 52 54 54 55 58 59 60 62 63 64 63 63 62 61 60 59 58 57 55 54 53
61 62 61 62 60 60 59 58 57 56 54 53 52 51 53 54 55 57 59 60 61 63 65 65 63 62 61 61 60 59 57 55 53
60 60 61 60 60 60 59 58 58 57 56 55 55 53 51 53 54 55 56 59 60 60 63 63 64 64 63 62 62 61 60 57 55
60 59 59 60 59 59 58 57 57 56 56 55 54 53 53 53 54 55 55 56 58 59 59 61 61 62 65 63 62 62 62 60 58
59 59 58 58 59 58 58 58 57 57 57 55 55 54 54 55 55 56 57 57 57 58 59 59 59 60 63 64 63 62 62 62 61
59 60 58 58 59 59 59 59 58 58 57 55 55 53 54 56 56 57 57 57 56 57 57 58 58 58 58 59 63 64 62 62 62
65 63 61 58 59 59 59 59 58 57 57 57 55 52 52 54 56 56 56 56 56 56 56 54 54 54 55 57 58 59 60 61 62
66 65 64 63 61 60 60 60 59 58 57 57 57 57 56 53 52 54 53 53 52 52 49 47 47 48 50 52 53 55 55 58 59
64 65 65 64 64 63 62 62 61 61 59 58 57 56 56 56 55 52 52 50 48 47 47 46 45 46 47 47 48 50 52 54 57

GFSFLT1_sfc_dewp_108.txt.gz
Dewpoint
68 67 68 69 68 69 66 69 70 69 69 70 67 66 65 63 61 61 63 61 64 64 64 64 64 63 63 63 63 63 62 62 62
67 67 68 67 67 67 68 70 69 68 69 68 66 65 64 60 60 60 60 61 64 64 64 63 63 63 63 63 62 62 62 62 62
67 68 69 69 67 67 69 69 68 68 68 66 65 64 63 61 61 61 61 64 64 63 63 63 63 62 62 62 62 62 62 61 62
68 70 70 70 70 70 70 69 67 67 66 66 65 65 63 60 60 60 61 65 63 63 63 63 62 62 62 62 62 62 61 61 61
69 69 70 70 71 70 70 68 66 66 66 66 65 64 63 60 61 61 62 63 63 63 62 62 62 62 61 61 61 61 61 61 60
65 67 68 70 70 70 69 67 66 65 64 65 64 62 59 60 61 61 64 62 63 62 62 61 61 61 61 61 61 60 60 60 60
63 66 67 68 69 69 68 67 66 62 59 60 62 59 59 60 61 62 64 62 62 62 61 61 61 61 60 60 60 59 59 59 59
63 64 65 65 64 65 67 66 63 60 59 59 59 58 58 60 61 63 65 63 63 62 61 61 60 60 60 60 60 59 59 59 58
63 63 63 63 63 61 61 62 62 61 61 59 58 58 59 59 61 63 64 64 62 62 61 61 60 60 59 59 59 58 58 58 58
62 62 63 62 62 61 60 60 60 60 59 59 56 57 58 59 61 61 63 64 64 62 62 61 60 60 59 59 58 58 57 57 56
62 61 61 61 61 61 61 59 58 57 56 54 55 56 58 59 60 61 61 64 64 63 62 62 61 61 60 59 58 57 56 56 55
61 61 61 60 59 61 60 59 57 55 53 52 54 54 55 57 59 59 60 62 63 64 63 63 62 61 61 60 58 57 56 54 53
62 62 61 61 59 59 59 58 56 54 53 52 51 52 53 54 56 59 59 60 62 63 65 65 63 62 62 60 60 59 57 56 54
62 62 62 61 60 59 59 58 57 56 56 54 54 53 51 53 55 56 58 59 60 61 62 63 64 64 63 62 62 62 60 58 56
61 61 61 61 60 59 59 58 57 57 56 55 54 53 53 52 53 54 55 57 59 59 60 61 62 63 65 64 63 63 63 61 59
60 59 59 60 59 59 58 57 57 56 56 55 54 55 53 53 54 53 55 56 57 59 59 59 60 61 63 65 64 63 63 63 62
59 59 58 59 59 58 58 58 57 57 57 55 54 52 53 56 55 56 56 56 57 57 58 59 59 59 58 59 62 64 63 63 62
62 61 58 58 59 59 59 59 58 57 57 56 54 51 50 53 55 55 56 56 56 56 57 57 57 57 56 57 57 59 61 62 62
64 64 63 61 60 60 60 60 59 58 56 57 57 56 55 53 52 54 53 53 54 53 51 51 49 50 50 53 53 54 55 57 60
65 65 64 64 63 62 62 62 61 60 59 57 57 56 56 55 54 53 53 50 48 48 48 47 46 47 47 47 48 50 51 54 56

GFSFLT1_sfc_dewp_111.txt.gz
Dewpoint
69 69 69 70 70 69 70 69 69 70 70 68 67 66 65 63 61 61 63 61 64 64 64 64 63 63 63 63 63 63 62 62 62
69 68 69 69 68 69 69 68 69 70 68 66 65 65 64 60 60 60 61 61 64 64 64 63 63 63 63 62 62 63 62 62 62
67 67 68 68 68 69 68 67 68 69 67 65 65 64 63 61 60 61 62 64 63 63 63 63 63 62 62 62 62 62 62 62 62
66 67 68 68 70 70 69 68 68 67 66 64 64 64 63 60 60 61 62 65 63 63 63 62 62 62 62 62 62 61 62 61 61
69 69 69 69 70 70 69 68 67 67 66 64 64 64 62 59 60 61 62 64 63 63 62 62 62 62 62 61 61 61 61 61 60
67 68 69 70 70 70 69 67 67 66 66 65 64 62 60 59 60 61 65 63 63 62 62 62 61 61 61 61 60 60 60 60 60
67 66 68 69 69 69 68 66 66 62 61 63 62 59 59 60 60 61 64 62 62 62 62 61 61 61 60 60 60 60 60 60 59
66 65 65 65 65 66 65 63 61 59 59 59 59 58 58 59 61 63 65 62 62 62 61 61 61 60 60 60 59 59 59 59 59
63 63 63 63 63 63 62 61 61 60 59 58 59 58 58 59 61 62 64 64 63 62 61 60 60 60 59 59 59 58 58 58 58
62 62 62 61 61 60 60 60 60 60 59 59 57 58 58 59 61 61 62 64 63 62 61 61 60 60 59 58 58 58 57 57 57
62 61 61 61 60 60 59 59 59 58 57 56 56 57 58 58 59 60 61 64 65 63 62 62 61 61 60 59 58 57 57 56 55
62 61 60 60 60 60 59 58 58 57 54 54 55 56 57 58 59 59 60 62 63 65 63 63 62 61 61 59 58 57 56 54 53
60 60 60 60 59 60 59 58 57 55 53 51 51 53 54 56 58 58 59 60 61 63 65 65 63 62 62 61 60 59 57 56 54
61 60 60 60 59 59 59 58 56 55 55 53 53 53 51 53 54 57 58 58 60 60 62 63 64 64 63 62 63 62 61 59 57
62 61 61 61 60 59 59 58 57 56 56 55 55 54 54 52 53 55 56 58 59 59 60 60 61 63 65 64 63 63 62 62 60
62 61 61 61 60 59 59 58 57 56 56 55 55 55 54 53 53 53 54 55 57 58 59 59 60 61 63 65 64 64 64 63 63
61 60 61 60 60 59 58 57 57 57 56 55 54 52 52 55 55 54 54 54 56 56 58 58 58 59 59 61 62 63 63 64 63
61 60 60 59 59 59 58 58 57 56 57 56 54 50 49 52 55 55 56 56 56 56 57 57 58 58 57 58 58 58 60 62 63
63 61 59 59 60 59 59 59 58 57 56 57 57 56 55 52 52 54 53 52 54 55 54 54 53 53 53 54 54 54 54 56 59
63 63 63 62 61 61 61 61 60 60 59 58 57 56 56 56 54 52 53 51 49 50 49 48 48 49 49 48 48 50 52 53 56

GFSFLT1_sfc_dewp_114.txt.gz
Dewpoint
72 72 71 70 71 71 70 70 70 70 69 68 66 66 65 63 61 61 63 61 64 64 64 64 63 63 63 63 63 63 63 63 63
70 71 71 70 71 70 69 70 70 69 68 67 65 65 64 60 60 60 61 61 64 64 64 63 63 63 63 63 63 63 62 62 62
69 70 70 70 70 69 69 70 69 67 66 65 65 64 63 61 60 61 62 65 64 64 63 63 63 63 63 63 62 62 62 62 62
68 69 69 70 70 69 70 70 68 67 65 64 64 64 63 60 60 61 62 65 64 63 63 63 63 63 62 62 62 62 62 62 61
68 68 68 70 70 69 69 69 67 66 64 64 64 64 62 59 60 61 63 64 63 63 63 62 62 62 62 62 61 61 61 61 61
67 67 68 70 70 69 69 68 68 67 65 65 63 61 59 59 60 61 65 63 63 63 62 62 62 62 61 61 61 61 61 61 60
68 67 68 70 69 68 68 66 65 63 62 62 61 59 58 59 60 61 65 62 63 62 62 62 61 61 61 60 60 60 60 60 59
67 68 68 67 65 66 64 61 59 59 59 59 58 58 58 59 60 62 65 63 62 62 62 61 61 60 60 60 60 59 59 59 59
65 66 65 64 64 62 61 59 59 58 58 58 58 57 58 59 60 61 64 64 62 62 61 61 61 60 59 59 59 58 58 58 58
62 62 62 62 62 61 60 59 59 59 59 59 58 58 57 58 60 60 62 64 64 62 62 61 61 60 59 59 58 58 57 57 57
62 61 61 60 60 59 59 59 59 59 57 57 57 58 58 58 58 59 60 64 64 63 62 62 61 61 60 59 59 58 57 56 55
61 61 60 60 59 59 58 58 57 57 55 54 55 57 57 58 58 59 59 61 63 64 63 63 62 62 60 60 59 58 56 55 54
60 60 60 60 59 59 58 58 57 56 54 52 52 54 56 57 57 58 58 59 61 63 65 65 63 62 62 61 60 59 58 57 55
61 60 60 59 59 59 58 57 56 55 54 53 52 52 52 54 55 57 57 58 59 60 61 63 64 65 63 62 63 62 61 59 58
60 59 59 59 58 58 58 57 57 56 55 55 54 55 54 52 52 54 56 58 58 59 59 60 61 63 65 64 64 64 63 62 61
61 60 60 60 58 57 58 58 57 56 56 55 55 55 55 54 53 52 54 55 57 57 58 58 59 60 63 65 65 65 64 64 63
62 61 61 60 60 59 58 58 56 57 56 55 53 52 52 53 55 54 53 53 55 56 57 57 58 58 60 60 63 64 64 64 64
62 62 61 61 61 60 59 58 57 56 56 56 54 51 50 52 54 54 55 55 55 56 56 57 58 58 58 59 59 59 58 60 62
62 61 61 61 61 60 59 59 58 58 57 57 57 56 54 54 52 54 53 53 55 56 56 56 56 57 58 57 56 55 54 56 59
63 62 61 61 61 60 61 60 59 60 58 58 57 57 56 56 54 52 54 52 50 51 52 51 52 51 52 52 54 51 51 54 56

GFSFLT1_sfc_dewp_117.txt.gz
Dewpoint
72 72 71 71 71 71 71 71 70 69 68 67 66 66 65 65 63 62 63 62 64 65 64 64 64 64 64 64 64 63 63 63 63
72 71 71 71 71 71 71 70 69 69 67 66 66 65 64 61 62 62 62 62 64 64 64 64 64 64 63 63 63 63 63 62 62
71 71 71 71 71 71 71 70 69 68 66 65 65 64 63 61 62 63 62 65 64 64 64 64 64 63 63 63 63 63 63 62 62
70 70 71 71 70 70 70 69 67 66 65 65 65 64 63 61 61 61 61 65 64 64 63 63 63 63 63 63 62 62 62 62 62
69 69 70 70 70 71 70 69 66 65 65 64 64 63 63 61 62 62 61 65 64 63 63 63 63 62 62 62 62 62 62 61 61
66 66 69 69 69 70 69 68 66 66 65 64 63 62 60 60 61 61 65 64 63 63 63 62 62 62 62 61 61 61 61 61 60
64 66 68 69 68 69 69 67 66 63 59 59 60 58 59 60 61 61 65 63 63 63 62 62 62 61 61 61 61 60 60 60 60
65 68 69 67 65 65 65 62 60 61 59 57 57 58 58 59 61 62 65 63 63 62 62 62 61 61 61 60 60 60 60 59 59
64 66 67 67 65 63 61 60 60 60 59 58 57 57 58 59 61 62 64 64 62 62 62 61 61 60 60 60 59 59 59 58 58
63 64 66 66 64 61 60 59 59 59 59 59 58 58 58 59 60 61 62 64 63 62 62 61 61 60 60 59 59 58 58 57 57
64 64 66 65 63 60 59 59 60 60 60 59 58 58 58 58 60 60 61 64 64 63 62 62 61 61 60 60 59 58 57 56 56
65 65 65 64 63 60 59 59 60 59 57 57 58 58 58 59 59 60 60 61 63 64 63 63 62 62 60 59 59 58 58 57 55
64 64 63 62 61 60 59 59 59 58 57 55 56 57 58 58 58 59 59 60 61 63 65 65 64 63 62 62 60 60 59 58 57
63 63 62 61 60 59 59 59 58 58 57 56 54 54 55 56 57 58 59 60 60 61 62 63 64 65 64 63 64 62 61 60 59
62 62 61 61 60 59 59 59 58 58 57 54 54 55 55 54 54 55 57 58 60 60 61 61 61 63 65 65 64 64 64 63 62
62 61 60 60 59 59 59 59 58 58 57 57 57 57 57 56 56 54 54 56 58 59 59 60 60 60 63 65 65 65 65 63 64
61 60 60 60 59 58 59 59 58 58 58 57 57 56 55 54 56 56 54 54 56 57 58 58 59 60 60 61 64 65 65 64 64
62 61 60 59 59 58 58 59 59 59 58 58 57 54 51 53 56 56 56 54 54 55 56 57 58 59 59 60 60 60 59 60 62
63 63 62 61 62 61 61 61 60 60 59 58 57 57 55 55 53 56 55 55 55 56 56 57 57 58 60 59 57 56 56 57 59
63 63 63 62 62 62 62 61 60 60 60 59 59 58 58 57 56 55 54 54 52 54 55 55 55 55 55 55 55 53 52 54 57

GFSFLT1_sfc_dewp_120.txt.gz
Dewpoint
72 72 72 72 72 71 71 70 70 69 68 67 67 66 66 64 59 60 62 61 64 65 64 65 64 64 64 64 64 63 64 63 63
72 71 72 72 72 71 71 70 69 68 67 66 66 65 65 57 59 59 60 62 65 65 64 65 64 64 64 64 64 63 63 63 64
72 72 72 72 72 71 71 69 68 67 65 65 65 64 63 58 59 60 61 65 64 64 64 64 64 64 63 63 63 63 63 62 62
72 71 72 72 71 71 71 69 67 66 65 65 65 64 64 58 58 58 60 66 64 64 64 63 63 63 63 63 62 63 62 62 62
71 70 70 71 70 70 70 68 66 65 65 65 64 64 63 57 59 58 61 65 64 63 63 63 63 62 62 62 62 62 61 61 61
68 66 69 70 70 70 69 67 66 66 65 64 63 63 55 56 57 58 65 64 63 63 63 62 62 62 62 62 61 61 61 61 61
62 67 68 69 69 69 68 66 65 61 55 57 60 54 55 56 57 59 65 63 63 63 62 62 62 61 61 61 61 61 60 60 60
63 67 65 66 65 64 63 61 58 55 53 53 53 54 55 56 57 61 65 63 62 62 62 62 61 61 61 60 60 60 59 59 59
60 65 62 63 62 61 60 57 58 58 56 54 53 54 55 55 57 61 64 64 63 62 62 61 61 61 60 60 59 59 58 58 58
59 66 62 61 60 59 58 57 58 58 57 57 56 56 56 57 57 58 63 64 63 62 62 61 61 60 60 59 59 58 58 57 57
60 65 64 60 59 58 57 57 58 58 57 57 58 57 58 57 58 58 60 64 65 63 62 62 62 61 61 60 59 58 57 56 56
63 64 64 61 59 57 57 57 58 58 58 58 57 58 57 58 58 58 58 61 63 64 63 63 63 62 61 60 60 59 58 57 56
62 64 63 61 60 58 57 57 58 58 57 57 57 57 58 57 57 58 58 59 58 62 65 65 64 63 62 62 61 61 60 59 58
59 60 62 61 60 59 56 56 57 58 57 57 56 56 57 58 57 57 58 59 60 59 63 64 65 65 64 63 64 63 62 61 60
61 60 61 61 60 59 57 56 56 56 57 55 54 55 55 55 55 55 56 57 59 59 60 60 60 63 65 65 64 65 64 63 62
62 62 62 61 59 58 56 56 57 58 58 56 56 57 58 57 56 56 55 55 57 58 58 59 59 59 63 65 65 65 65 64 64
61 61 61 60 58 57 57 58 58 56 58 57 58 55 55 56 57 57 56 56 55 55 57 57 58 59 59 60 64 65 65 65 64
61 61 59 59 58 58 58 58 58 58 59 59 57 55 52 52 55 56 56 56 55 56 55 56 57 57 58 60 60 61 61 61 62
62 61 59 59 59 58 58 59 60 60 60 60 58 59 57 56 54 56 56 56 56 56 57 56 56 58 59 59 58 57 57 58 60
62 63 62 61 60 60 60 61 62 61 61 61 60 60 59 59 57 55 56 56 54 56 56 56 57 57 57 56 55 53 52 55 57

GFSFLT1_sfc_dewp_123.txt.gz
Dewpoint
72 72 72 72 71 71 71 70 69 68 68 68 67 65 66 65 59 60 62 62 64 65 65 65 64 64 64 63 63 63 64 63 63
72 72 72 72 71 71 70 69 68 68 67 66 65 64 64 57 58 60 61 63 65 65 65 65 64 64 64 64 63 64 63 63 63
72 72 72 72 71 71 70 68 68 67 66 65 64 65 64 57 58 61 62 65 64 65 64 64 64 64 63 63 63 62 62 62 62
72 71 72 72 71 71 70 68 67 65 65 65 64 64 64 57 58 59 61 65 64 64 64 64 64 64 63 63 62 62 62 61 61
70 70 71 71 71 70 69 68 66 65 65 65 64 64 63 57 58 60 62 66 64 64 63 63 63 63 63 63 62 62 61 61 61
68 66 69 70 70 70 69 67 66 66 65 65 64 64 55 56 57 60 66 64 63 63 63 63 62 62 62 62 61 61 61 61 61
64 67 68 70 69 68 67 66 65 61 56 58 61 56 54 56 58 60 66 63 63 63 63 62 62 62 61 61 61 61 60 60 60
67 67 68 68 65 64 62 61 56 51 51 53 52 53 54 55 58 62 65 63 63 63 62 62 61 61 61 60 60 60 59 59 59
63 63 64 65 63 61 57 56 54 52 51 52 52 52 54 55 58 62 65 64 63 63 62 61 61 61 60 60 59 59 58 58 58
61 60 62 63 60 58 56 56 56 54 52 52 52 53 54 55 57 59 63 65 64 63 62 62 61 61 60 59 59 58 58 57 57
60 61 60 59 59 58 56 56 56 56 55 55 55 55 56 55 56 59 61 64 65 63 63 62 62 61 61 60 59 58 57 57 56
64 63 60 59 58 56 56 56 56 56 56 56 56 56 55 56 57 57 59 61 63 65 64 63 63 62 62 61 60 59 59 58 57
64 64 61 59 58 56 56 57 57 57 57 56 56 56 57 56 56 57 58 60 59 63 65 66 64 64 63 62 62 61 60 60 59
63 64 62 58 58 57 57 57 57 58 57 57 56 56 57 57 56 56 57 58 60 60 62 64 65 65 64 63 63 63 62 62 61
62 64 62 59 59 58 57 57 57 57 57 54 54 56 57 57 57 56 56 57 59 60 60 61 61 63 65 65 64 65 65 64 63
58 60 60 60 59 58 56 57 56 57 59 57 57 57 57 57 57 58 56 57 57 58 58 59 60 60 64 65 65 65 65 64 65
58 60 59 58 59 58 57 56 57 58 59 57 59 57 58 59 58 59 57 57 57 56 57 57 58 59 61 62 64 65 65 65 65
60 61 61 60 59 59 58 58 59 58 60 60 60 57 55 56 56 57 57 57 57 57 57 57 57 58 58 61 61 62 62 62 63
62 62 61 60 59 59 59 59 59 60 60 61 60 61 59 55 55 58 57 57 56 57 58 56 57 58 60 59 56 57 56 58 60
62 62 61 60 60 60 60 60 60 61 62 62 61 60 59 58 58 56 57 58 56 56 57 57 58 58 58 57 55 54 53 55 57

GFSFLT1_sfc_dewp_126.txt.gz
Dewpoint
72 71 72 72 71 71 71 70 69 69 69 68 65 65 65 64 60 61 64 62 65 65 64 64 64 63 63 64 65 64 64 64 64
72 72 72 72 72 72 70 69 68 68 68 66 65 64 64 58 60 61 62 62 65 65 65 64 64 65 64 65 63 63 63 64 62
72 72 72 72 71 71 70 68 67 66 66 65 64 65 65 60 61 62 62 63 64 64 63 64 64 63 64 62 63 63 62 62 62
72 72 72 71 71 70 69 67 66 66 65 65 64 64 63 59 61 61 62 63 64 64 63 63 63 63 62 62 62 62 61 62 61
70 70 71 71 70 70 67 67 66 65 65 65 64 64 62 58 61 62 63 66 64 64 64 63 63 63 63 63 62 62 62 62 61
68 68 69 70 70 69 68 67 66 66 65 65 64 63 57 58 61 62 66 65 64 63 63 63 63 63 62 62 62 61 61 61 61
67 68 68 69 69 68 67 66 66 63 61 61 63 59 56 58 61 63 66 64 63 63 63 62 62 62 62 61 61 61 61 60 60
68 69 68 67 65 65 65 64 60 55 55 56 57 55 56 58 60 64 65 64 63 63 63 62 62 62 61 61 60 60 60 59 59
66 67 67 65 64 62 60 57 56 51 50 52 52 53 55 59 61 63 64 65 63 63 62 62 62 61 61 60 60 59 59 58 58
64 64 66 65 62 58 55 55 54 52 51 52 52 53 54 58 60 62 63 64 64 63 63 62 62 61 60 60 59 58 58 57 57
62 62 64 63 60 58 56 57 56 54 53 52 54 55 55 56 59 61 62 64 65 63 63 62 62 62 61 60 59 58 58 57 56
60 60 62 60 58 57 56 56 57 56 55 55 55 55 55 56 57 59 61 63 63 65 63 63 63 62 62 61 60 59 59 58 57
59 60 59 59 58 56 56 57 56 57 57 56 56 56 56 56 56 57 60 61 61 63 65 66 64 64 63 62 62 62 61 60 59
61 64 59 58 57 56 57 57 57 57 57 56 56 56 57 56 56 57 57 59 60 60 63 64 65 65 65 63 63 63 63 62 62
63 64 61 58 57 57 57 57 57 57 57 54 55 56 56 57 57 56 56 57 58 59 60 61 62 63 65 65 65 64 65 65 64
62 63 61 58 58 57 56 56 56 56 57 55 55 55 55 55 55 56 55 56 57 58 58 60 60 61 64 65 66 65 65 65 65
62 61 60 59 58 57 55 56 56 57 57 55 57 55 57 57 57 57 56 56 56 56 56 57 58 58 61 62 64 65 65 65 65
62 61 60 59 59 58 56 57 56 57 57 58 58 54 53 54 55 55 56 55 56 56 56 56 56 57 58 61 61 61 62 61 62
60 60 58 59 59 58 58 58 58 59 58 59 59 59 58 54 54 56 56 56 55 56 57 56 56 56 58 57 56 57 58 58 60
62 61 60 60 59 59 58 58 58 60 60 60 59 59 58 58 56 54 56 57 55 55 55 55 57 57 57 56 55 56 55 56 59